     2              OBSERVATION DATA    GPS                 RINEX VERSION / TYPE
ASHTORIN IGPP/SIO/UCSD 26 - JUN - 98 09:09                  PGM / RUN BY / DATE
                                                            COMMENT
Original Marker Name: UCSD 1992 PF5C                        COMMENT
Campaign Name: Anza Transect 1998                           COMMENT
4-Character Station Name: PF5C                              COMMENT
6-Character Antenna Code: DMRCHT                            COMMENT
Vertical Measurement Point: BCR                             COMMENT
Vertical Offset to Rinex Ref. Point: 0.0349                 COMMENT
Radial Measurement Point: ECF                               COMMENT
Radial Offset to Rinex Ref. Point: 0.1896                   COMMENT
Antenna Height from Field Measurement: 1.4150 m             COMMENT
Additional Antenna Identification Info.:                    COMMENT
Turborogue and Ashtech Choke Ring                           COMMENT
At shutdown, tribrach bubble was just slightly              COMMENT
off center to the N. After releveling, antenna              COMMENT
was still centered over mark.                               COMMENT
Original XYZ: 0.0000 0.0000 0.0000                          COMMENT
New XYZ position is based on association with SCEC monument COMMENT
E1D0K5P5+0011. Position of that monument is believed to be  COMMENT
valid to within 1 m horizontally; vertical accuracy         COMMENT
should be no worse than 3-times this value.                 COMMENT
                                                            COMMENT
Revised Rinex header created by UCSD GPS archive for        COMMENT
GSAC on 12-Apr-1999 (1999:102) 10:09:39 GMT                 COMMENT
For assistance contact dagnew@ucsd.edu or hjohnson@ucsd.edu COMMENT
                                                            COMMENT
UCSD 1992 PF5C                                              MARKER NAME
PF5C                                                        MARKER NUMBER
Elliott SCRIPPS INSTITUTION OF OCEANOGRAPHY                 OBSERVER / AGENCY
319 ASHTECH Z12-XII3 1F501D0                                REC # / TYPE / VERS
409 DORNE-MARGOL. TYPE T                                    ANT # / TYPE
 -2371306.0000 -4760863.0000  3510485.0000                  APPROX POSITION XYZ
        1.3673        0.0000        0.0000                  ANTENNA: DELTA H/E/N
     1     1     0                                          WAVELENGTH FACT L1/2
     7    L1    L2    C1    P1    P2    D1    D2            # / TYPES OF OBSERV
    30                                                      INTERVAL
  1998     6    25     0     0   30.000000                  TIME OF FIRST OBS
  1998     6    25     1     1    0.000000                  TIME OF LAST OBS
     0                                                      # OF SATELLITES
                                                            END OF HEADER
 98  6 25  0  0 30.0000000  0  9  3  1 23 17  9 21  8 31 29          0.000000000
 -19051897.536 9 -14833112.47948  21499155.900    21499155.8144   21499162.1634
        -0.000          -0.000
 -22311254.341 9 -17368668.98049  20778259.935    20778259.7004   20778266.1644
        -0.000          -0.000
  -5858313.857 9  -4546648.09248  21759622.738    21759622.3874   21759628.6034
        -0.000          -0.000
   5240151.008 9   3936170.76347  22571247.834    22571247.3214   22571254.8034
        -0.000          -0.000
  -7432192.618 9  -5784722.95746  23579294.258    23579294.2944   23579301.4954
        -0.000          -0.000
 -25301852.486 9 -19702107.51548  20958241.351    20958241.0724   20958247.1914
        -0.000          -0.000
 -11412740.271 9  -8885456.07746  23070042.462    23070042.3524   23070049.6844
        -0.000          -0.000
  -8164129.774 9  -6351833.68746  23125070.909    23125070.6464   23125077.3484
        -0.000          -0.000
 -13011623.468 9 -10118076.72447  22619555.827    22619556.0374   22619563.3534
        -0.000          -0.000
 98  6 25  0  1  0.0000000  0  9  3  1 23 17  9 21  8 31 29          0.000000030
 -19034213.194 9 -14819332.49048  21502521.148    21502521.0544   21502527.4034
        -0.000          -0.000
 -22363233.069 9 -17409171.84849  20768368.673    20768368.4484   20768374.9074
        -0.000          -0.000
  -5817005.219 9  -4514459.55648  21767483.542    21767483.1754   21767489.3764
        -0.000          -0.000
   5317795.951 9   3996673.25847  22586023.131    22586022.7024   22586030.1854
        -0.000          -0.000
  -7428193.184 9  -5781606.53146  23580055.458    23580055.5174   23580062.5184
        -0.000          -0.000
 -25310960.784 9 -19709204.88048  20956508.132    20956507.8224   20956513.9574
        -0.000          -0.000
 -11473945.196 9  -8933148.14846  23058395.566    23058395.3754   23058402.7044
        -0.000          -0.000
  -8213331.440 9  -6390172.60546  23115708.146    23115707.8784   23115714.5694
        -0.000          -0.000
 -13103102.689 9 -10189359.14847  22602147.882    22602148.0694   22602155.3434
        -0.000          -0.000
 98  6 25  0  1 30.0000000  0  9  3  1 23 17  9 21  8 31 29          0.000000041
 -19015992.161 9 -14805134.30848  21505988.538    21505988.4444   21505994.8244
        -0.000          -0.000
 -22414719.959 9 -17449291.46849  20758571.028    20758570.8104   20758577.2494
        -0.000          -0.000
  -5775600.045 9  -4482195.79548  21775362.686    21775362.3114   21775368.5174
        -0.000          -0.000
   5395738.330 9   4057407.51447  22600855.141    22600854.6744   22600862.2054
        -0.000          -0.000
  -7423640.304 9  -5778058.81246  23580921.936    23580921.9474   23580928.8334
        -0.000          -0.000
 -25319916.959 9 -19716183.71048  20954803.793    20954803.5014   20954809.6504
        -0.000          -0.000
 -11534835.848 9  -8980595.34146  23046808.346    23046808.1574   23046815.5794
        -0.000          -0.000
  -8262008.319 9  -6428102.61646  23106445.234    23106444.9614   23106451.6574
        -0.000          -0.000
 -13194290.075 9 -10260414.15047  22584795.358    22584795.5914   22584802.8484
        -0.000          -0.000
 98  6 25  0  2  0.0000000  0  9  3  1 23 17  9 21  8 31 29          0.000000054
 -18997241.396 9 -14790523.33748  21509556.656    21509556.5744   21509563.0104
        -0.000          -0.000
 -22465715.344 9 -17489028.08849  20748866.907    20748866.6694   20748873.1064
        -0.000          -0.000
  -5734087.615 9  -4449848.44948  21783262.262    21783261.8824   21783268.1044
        -0.000          -0.000
   5473998.733 9   4118389.60947  22615747.638    22615747.1744   22615754.7244
        -0.000          -0.000
  -7418546.054 9  -5774089.26246  23581891.338    23581891.3964   23581898.0494
        -0.000          -0.000
 -25328707.435 9 -19723033.42248  20953130.990    20953130.6904   20953136.8474
        -0.000          -0.000
 -11595394.372 9  -9027783.74046  23035284.478    23035284.2954   23035291.5934
        -0.000          -0.000
  -8310154.814 9  -6465619.33746  23097283.220    23097283.0044   23097289.6324
        -0.000          -0.000
 -13285190.213 9 -10331245.33647  22567497.439    22567497.7274   22567504.9704
        -0.000          -0.000
 98  6 25  0  2 30.0000000  0  9  3  1 23 17  9 21  8 31 29          0.000000062
 -18977939.613 9 -14775483.00848  21513229.668    21513229.6014   21513236.0734
        -0.000          -0.000
 -22516210.780 9 -17528375.14649  20739257.923    20739257.7014   20739264.1224
        -0.000          -0.000
  -5692463.891 9  -4417414.38948  21791182.996    21791182.6184   21791188.8604
        -0.000          -0.000
   5552588.548 9   4179628.36447  22630702.869    22630702.3204   22630709.8934
        -0.000          -0.000
  -7412913.266 9  -5769700.04246  23582963.168    23582963.1654   23582969.8124
        -0.000          -0.000
 -25337331.716 9 -19729753.62848  20951489.851    20951489.5564   20951495.6784
        -0.000          -0.000
 -11655612.358 9  -9074706.78246  23023825.365    23023825.1284   23023832.4834
        -0.000          -0.000
  -8357778.304 9  -6502728.52546  23088220.721    23088220.5584   23088227.2364
        -0.000          -0.000
 -13375804.772 9 -10401853.99747  22550253.993    22550254.2444   22550261.4964
        -0.000          -0.000
 98  6 25  0  3  0.0000000  0  9  3  1 23 17  9 21  8 31 29          0.000000064
 -18958054.783 9 -14759988.35348  21517013.651    21517013.5514   21517020.0214
        -0.000          -0.000
 -22566203.965 9 -17567330.83249  20729744.487    20729744.2774   20729750.6814
        -0.000          -0.000
  -5650715.134 9  -4384882.89348  21799127.520    21799127.1384   21799133.3814
        -0.000          -0.000
   5631499.713 9   4241117.52647  22645719.175    22645718.6544   22645726.2824
        -0.000          -0.000
  -7406738.212 9  -5764888.30446  23584138.097    23584138.2014   23584144.8294
        -0.000          -0.000
 -25345794.073 9 -19736347.66348  20949879.521    20949879.2104   20949885.3284
        -0.000          -0.000
 -11715469.044 9  -9121348.29546  23012434.986    23012434.7934   23012442.0574
        -0.000          -0.000
  -8404884.874 9  -6539434.92546  23079256.791    23079256.4734   23079263.1194
        -0.000          -0.000
 -13466143.931 9 -10472248.04947  22533062.975    22533063.2454   22533070.4144
        -0.000          -0.000
 98  6 25  0  3 30.0000000  0  9  3  1 23 17  9 21  8 31 29          0.000000065
 -18937574.609 9 -14744029.80348  21520910.916    21520910.8434   21520917.2784
        -0.000          -0.000
 -22615714.263 9 -17605910.25149  20720323.010    20720322.7794   20720329.1494
        -0.000          -0.000
  -5608868.954 9  -4352275.48848  21807090.545    21807090.1654   21807096.4294
        -0.000          -0.000
   5710727.111 9   4302853.10247  22660795.696    22660795.2184   22660802.8024
        -0.000          -0.000
  -7400030.071 9  -5759661.16646  23585414.636    23585414.6474   23585421.3674
        -0.000          -0.000
 -25354083.661 9 -19742807.07148  20948302.086    20948301.7634   20948307.8804
        -0.000          -0.000
 -11774941.195 9  -9167690.16646  23001117.641    23001117.4084   23001124.8084
        -0.000          -0.000
  -8451460.136 9  -6575727.31246  23070393.591    23070393.3904   23070400.0894
        -0.000          -0.000
 -13556225.683 9 -10542441.53147  22515920.953    22515921.1624   22515928.3464
        -0.000          -0.000
 98  6 25  0  4  0.0000000  0  9  3  1 23 17  9 21  8 31 29          0.000000068
 -18916495.883 9 -14727604.85048  21524922.092    21524921.9874   21524928.4154
        -0.000          -0.000
 -22664758.002 9 -17644126.11749  20710990.276    20710990.0404   20710996.3994
        -0.000          -0.000
  -5566939.962 9  -4319603.55448  21815069.413    21815069.0024   21815075.2594
        -0.000          -0.000
   5790253.450 9   4364821.60647  22675928.994    22675928.5414   22675936.2734
        -0.000          -0.000
  -7392793.435 9  -5754022.23046  23586791.793    23586791.8844   23586798.3804
        -0.000          -0.000
 -25362206.679 9 -19749136.69048  20946756.267    20946755.9734   20946762.0924
        -0.000          -0.000
 -11834027.758 9  -9213731.59146  22989873.872    22989873.6824   22989880.9004
        -0.000          -0.000
  -8497505.656 9  -6611606.92346  23061631.454    23061631.2254   23061637.8864
        -0.000          -0.000
 -13646061.732 9 -10612443.54947  22498825.589    22498825.7974   22498833.0394
        -0.000          -0.000
 98  6 25  0  4 30.0000000  0  9  3  1 23 17  9 21  8 31 29          0.000000082
 -18894825.473 9 -14710718.83648  21529045.823    21529045.7724   21529052.1714
        -0.000          -0.000
 -22713324.878 9 -17681970.39649  20701748.271    20701748.0484   20701754.3754
        -0.000          -0.000
  -5524931.668 9  -4286869.82348  21823063.270    21823062.8884   21823069.1604
        -0.000          -0.000
   5870083.790 9   4427027.02246  22691120.290    22691119.7854   22691127.5074
        -0.000          -0.000
  -7385012.597 9  -5747959.22346  23588272.527    23588272.5284   23588279.0114
        -0.000          -0.000
 -25370174.712 9 -19755345.54048  20945240.009    20945239.7024   20945245.8174
        -0.000          -0.000
 -11892731.567 9  -9259474.76046  22978702.824    22978702.6454   22978709.9174
        -0.000          -0.000
  -8543022.910 9  -6647074.89146  23052969.821    23052969.5814   23052976.1444
        -0.000          -0.000
 -13735629.250 9 -10682236.33647  22481781.403    22481781.6664   22481788.8194
        -0.000          -0.000
 98  6 25  0  5  0.0000000  0  9  3  1 23 17  9 21  8 31 29          0.000000095
 -18872614.973 9 -14693411.98148  21533272.366    21533272.3264   21533278.6534
        -0.000          -0.000
 -22761447.189 9 -17719468.26949  20692590.879    20692590.6484   20692596.9724
        -0.000          -0.000
  -5482875.669 9  -4254098.91948  21831066.280    21831065.8874   21831072.1764
        -0.000          -0.000
   5950201.308 9   4489456.19246  22706366.202    22706365.7004   22706373.4814
        -0.000          -0.000
  -7376710.098 9  -5741489.74546  23589852.264    23589852.3354   23589858.7904
        -0.000          -0.000
 -25378014.491 9 -19761454.45548  20943748.147    20943747.8554   20943753.9864
        -0.000          -0.000
 -11951090.647 9  -9304949.30846  22967597.459    22967597.2244   22967604.3834
        -0.000          -0.000
  -8588031.427 9  -6682146.44546  23044404.976    23044404.7404   23044411.2574
        -0.000          -0.000
 -13824945.315 9 -10751833.16847  22464785.063    22464785.2934   22464792.3684
        -0.000          -0.000
 98  6 25  0  5 30.0000000  0  9  3  1 23 17  9 21  8 31 29          0.000000109
 -18849880.113 9 -14675696.52948  21537598.713    21537598.6814   21537604.9424
        -0.000          -0.000
 -22809120.258 9 -17756616.07349  20683518.961    20683518.7384   20683525.0744
        -0.000          -0.000
  -5440779.460 9  -4221296.68548  21839076.941    21839076.5724   21839082.8444
        -0.000          -0.000
   6030616.669 9   4552117.45746  22721668.742    22721668.2274   22721676.0004
        -0.000          -0.000
  -7367883.196 9  -5734611.62246  23591532.099    23591532.0724   23591538.5504
        -0.000          -0.000
 -25385716.189 9 -19767455.76948  20942282.571    20942282.2804   20942288.3904
        -0.000          -0.000
 -12009112.043 9  -9350160.72446  22956556.254    22956556.1274   22956563.2444
        -0.000          -0.000
  -8632529.085 9  -6716819.93146  23035937.381    23035937.1324   23035943.6074
        -0.000          -0.000
 -13914001.432 9 -10821227.45447  22447838.270    22447838.4854   22447845.4964
        -0.000          -0.000
 98  6 25  0  6  0.0000000  0  9  3  1 23 17  9 21  8 31 29          0.000000111
 -18826628.687 9 -14657578.55848  21542023.309    21542023.2584   21542029.5154
        -0.000          -0.000
 -22856328.575 9 -17793401.74149  20674535.448    20674535.2474   20674541.5864
        -0.000          -0.000
  -5398617.695 9  -4188443.36848  21847100.011    21847099.6684   21847105.9274
        -0.000          -0.000
   6111317.800 9   4615001.38846  22737025.702    22737025.2054   22737032.9674
        -0.000          -0.000
  -7358528.905 9  -5727322.54846  23593312.135    23593312.0704   23593318.5104
        -0.000          -0.000
 -25393279.305 9 -19773349.10248  20940843.361    20940843.0664   20940849.1824
        -0.000          -0.000
 -12066805.360 9  -9395116.49246  22945577.515    22945577.3284   22945584.6154
        -0.000          -0.000
  -8676524.694 9  -6751102.20746  23027565.291    23027565.0194   23027571.4624
        -0.000          -0.000
 -14002775.638 9 -10890402.08047  22430945.001    22430945.2104   22430952.2214
        -0.000          -0.000
 98  6 25  0  6 30.0000000  0  9  3  1 23 17  9 21  8 31 29          0.000000121
 -18802812.963 9 -14639020.87848  21546555.285    21546555.2604   21546561.4884
        -0.000          -0.000
 -22903029.267 9 -17829791.85349  20665648.542    20665648.3594   20665654.6944
        -0.000          -0.000
  -5356346.118 9  -4155504.48548  21855144.009    21855143.7094   21855149.9714
        -0.000          -0.000
   6192344.412 9   4678138.94046  22752444.615    22752444.1214   22752451.9284
        -0.000          -0.000
  -7348608.691 9  -5719592.51846  23595199.768    23595199.7834   23595206.2914
        -0.000          -0.000
 -25400649.915 9 -19779092.42948  20939440.742    20939440.4774   20939446.5964
        -0.000          -0.000
 -12124129.982 9  -9439784.97746  22934669.038    22934668.8304   22934675.9804
        -0.000          -0.000
  -8719980.762 9  -6784964.06646  23019295.834    23019295.5534   23019302.0434
        -0.000          -0.000
 -14091224.479 9 -10959323.16347  22414113.662    22414113.9034   22414120.9004
        -0.000          -0.000
 98  6 25  0  7  0.0000000  0  9  3  1 23 17  9 21  8 31 29          0.000000117
 -18778446.547 9 -14620034.09048  21551192.121    21551192.0804   21551198.3094
        -0.000          -0.000
 -22949255.942 9 -17865812.60649  20656851.924    20656851.7094   20656858.0244
        -0.000          -0.000
  -5313984.585 9  -4122495.50348  21863205.184    21863204.8884   21863211.1214
        -0.000          -0.000
   6273658.866 9   4741500.80246  22767918.168    22767917.6884   22767925.5744
        -0.000          -0.000
  -7338156.896 9  -5711448.26046  23597188.722    23597188.7164   23597195.2814
        -0.000          -0.000
 -25407846.999 9 -19784700.54549  20938071.182    20938070.9054   20938077.0354
        -0.000          -0.000
 -12181109.549 9  -9484184.58846  22923826.204    22923825.9754   22923832.9784
        -0.000          -0.000
  -8762923.625 9  -6818426.01546  23011124.070    23011123.8014   23011130.3414
        -0.000          -0.000
 -14179381.500 9 -11028016.84847  22397337.830    22397338.0854   22397345.1144
        -0.000          -0.000
 98  6 25  0  7 30.0000000  0  9  3  1 23 17  9 21  8 31 29          0.000000095
 -18753509.832 9 -14600602.91048  21555937.450    21555937.3854   21555943.6464
        -0.000          -0.000
 -22994982.937 9 -17901443.99549  20648150.357    20648150.1434   20648156.4374
        -0.000          -0.000
  -5271520.202 9  -4089406.38348  21871285.893    21871285.5844   21871291.8144
        -0.000          -0.000
   6355257.431 9   4805084.02946  22783445.915    22783445.4584   22783453.3264
        -0.000          -0.000
  -7327170.219 9  -5702887.19646  23599279.430    23599279.3294   23599286.1524
        -0.000          -0.000
 -25414859.458 9 -19790164.79549  20936736.763    20936736.4894   20936742.5824
        -0.000          -0.000
 -12237710.559 9  -9528289.20446  22913055.378    22913055.1024   22913061.9984
        -0.000          -0.000
  -8805354.190 9  -6851488.77646  23003049.823    23003049.5504   23003056.0684
        -0.000          -0.000
 -14267225.249 9 -11096466.42947  22380621.668    22380621.9094   22380628.9584
        -0.000          -0.000
 98  6 25  0  8  0.0000000  0  9  3  1 23 17  9 21  8 31 29          0.000000076
 -18727980.148 9 -14580709.67748  21560795.534    21560795.4424   21560801.7384
        -0.000          -0.000
 -23040188.713 9 -17936669.24149  20639547.921    20639547.7094   20639554.0094
        -0.000          -0.000
  -5228929.746 9  -4056219.01248  21879390.596    21879390.2734   21879396.4674
        -0.000          -0.000
   6437159.430 9   4868903.70846  22799031.534    22799030.9304   22799038.7734
        -0.000          -0.000
  -7315630.492 9  -5693895.20046  23601475.321    23601475.2694   23601482.1784
        -0.000          -0.000
 -25421678.637 9 -19795478.43649  20935439.132    20935438.8474   20935444.9624
        -0.000          -0.000
 -12293894.227 9  -9572068.64046  22902363.945    22902363.6634   22902370.4894
        -0.000          -0.000
  -8847249.214 9  -6884134.22346  22995077.534    22995077.2204   22995083.7374
        -0.000          -0.000
 -14354723.193 9 -11164646.56447  22363971.306    22363971.5544   22363978.5274
        -0.000          -0.000
 98  6 25  0  8 30.0000000  0  9  3  1 23 17  9 21  8 31 29          0.000000060
 -18701872.219 9 -14560365.86348  21565763.652    21565763.6124   21565769.8794
        -0.000          -0.000
 -23084893.041 9 -17971503.74949  20631040.940    20631040.7384   20631047.0344
        -0.000          -0.000
  -5186240.754 9  -4022954.87648  21887514.066    21887513.7694   21887519.9534
        -0.000          -0.000
   6519354.761 9   4932951.94646  22814672.689    22814672.1814   22814680.1844
        -0.000          -0.000
  -7303546.106 9  -5684478.79346  23603775.074    23603775.0664   23603781.8094
        -0.000          -0.000
 -25428335.130 9 -19800665.31349  20934172.393    20934172.1344   20934178.2624
        -0.000          -0.000
 -12349666.787 9  -9615527.71746  22891750.633    22891750.4414   22891757.3794
        -0.000          -0.000
  -8888622.071 9  -6916372.79646  22987204.504    22987204.1404   22987210.6694
        -0.000          -0.000
 -14441893.225 9 -11232571.16847  22347383.359    22347383.5594   22347390.4874
        -0.000          -0.000
 98  6 25  0  9  0.0000000  0  9  3  1 23 17  9 21  8 31 29          0.000000045
 -18675209.777 9 -14539589.95548  21570837.354    21570837.2904   21570843.5934
        -0.000          -0.000
 -23129090.405 9 -18005943.21749  20622630.438    20622630.2404   20622636.5274
        -0.000          -0.000
  -5143468.896 9  -3989626.15548  21895653.302    21895652.9754   21895659.1604
        -0.000          -0.000
   6601827.459 9   4997216.33446  22830366.740    22830366.2864   22830374.2304
        -0.000          -0.000
  -7290915.154 9  -5674636.49346  23606178.731    23606178.6724   23606185.3794
        -0.000          -0.000
 -25434850.205 9 -19805741.98448  20932932.646    20932932.3824   20932938.5024
        -0.000          -0.000
 -12405038.122 9  -9658674.15946  22881213.726    22881213.5564   22881220.4854
        -0.000          -0.000
  -8929472.618 9  -6948204.37347  22979430.937    22979430.5414   22979437.0804
        -0.000          -0.000
 -14528746.590 9 -11300249.02847  22330855.704    22330855.8404   22330862.7544
        -0.000          -0.000
 98  6 25  0  9 30.0000000  0  9  3  1 23 17  9 21  8 31 29          0.000000036
 -18647996.556 9 -14518384.87448  21576015.850    21576015.7854   21576022.1354
        -0.000          -0.000
 -23172772.953 9 -18039981.53249  20614317.909    20614317.6854   20614323.9744
        -0.000          -0.000
  -5100630.336 9  -3956245.46848  21903805.221    21903804.8724   21903811.0634
        -0.000          -0.000
   6684578.080 9   5061697.26446  22846113.804    22846113.3254   22846121.1344
        -0.000          -0.000
  -7277737.440 9  -5664368.15246  23608686.229    23608686.1874   23608692.9884
        -0.000          -0.000
 -25441234.767 9 -19810716.96448  20931717.663    20931717.3844   20931723.5264
        -0.000          -0.000
 -12460003.508 9  -9701504.27646  22870754.117    22870753.9374   22870760.9684
        -0.000          -0.000
  -8969786.311 9  -6979617.62547  22971759.594    22971759.2024   22971765.5814
        -0.000          -0.000
 -14615297.183 9 -11367690.96147  22314385.621    22314385.7424   22314392.6334
        -0.000          -0.000
 98  6 25  0 10  0.0000000  0  9  3  1 23 17  9 21  8 31 29          0.000000034
 -18620240.791 9 -14496757.03148  21581297.653    21581297.5584   21581303.9804
        -0.000          -0.000
 -23215951.379 9 -18073627.02849  20606101.311    20606101.0834   20606107.3684
        -0.000          -0.000
  -5057731.895 9  -3922818.12648  21911968.534    21911968.1904   21911974.3594
        -0.000          -0.000
   6767611.402 9   5126398.49646  22861914.657    22861914.1464   22861921.7894
        -0.000          -0.000
  -7264014.442 9  -5653674.88546  23611297.465    23611297.4694   23611304.2994
        -0.000          -0.000
 -25447498.256 9 -19815597.60848  20930525.747    20930525.4794   20930531.6334
        -0.000          -0.000
 -12514577.947 9  -9744029.74646  22860368.909    22860368.7264   22860375.6814
        -0.000          -0.000
  -9009551.376 9  -7010603.38446  22964192.471    22964192.0914   22964198.4424
        -0.000          -0.000
 -14701568.530 9 -11434915.30247  22297968.685    22297968.7674   22297975.6434
        -0.000          -0.000
 98  6 25  0 10 30.0000000  0  9  3  1 23 17  9 21  8 31 29          0.000000039
 -18591942.391 9 -14474706.35048  21586682.659    21586682.5814   21586689.0554
        -0.000          -0.000
 -23258620.652 9 -18106875.77749  20597981.617    20597981.3644   20597987.6524
        -0.000          -0.000
  -5014769.241 9  -3889340.74348  21920144.068    21920143.7104   21920149.8964
        -0.000          -0.000
   6850929.718 9   5191321.77946  22877769.601    22877769.0904   22877776.7534
        -0.000          -0.000
  -7249743.841 9  -5642554.95246  23614012.981    23614012.9504   23614019.7344
        -0.000          -0.000
 -25453629.717 9 -19820375.36348  20929358.966    20929358.6874   20929364.8294
        -0.000          -0.000
 -12568764.880 9  -9786253.27146  22850057.458    22850057.2254   22850064.2704
        -0.000          -0.000
  -9048755.016 9  -7041151.65447  22956732.298    22956731.9054   22956738.1874
        -0.000          -0.000
 -14787568.225 9 -11501927.96247  22281603.411    22281603.5274   22281610.3334
        -0.000          -0.000
 98  6 25  0 11  0.0000000  0  9  3  1 23 17  9 21  8 31 29          0.000000050
 -18563101.363 9 -14452232.84748  21592170.918    21592170.8514   21592177.3394
        -0.000          -0.000
 -23300783.274 9 -18139729.74149  20589958.305    20589958.0594   20589964.3244
        -0.000          -0.000
  -4971732.885 9  -3855805.92348  21928333.617    21928333.2514   21928339.4424
        -0.000          -0.000
   6934546.505 9   5256477.66446  22893681.429    22893680.9644   22893688.4784
        -0.000          -0.000
  -7234935.217 9  -5631015.76746  23616830.990    23616830.9294   23616837.7104
        -0.000          -0.000
 -25459614.506 9 -19825038.83648  20928220.088    20928219.8154   20928225.9674
        -0.000          -0.000
 -12622563.572 9  -9828174.28446  22839819.725    22839819.4934   22839826.6664
        -0.000          -0.000
  -9087386.667 9  -7071254.21747  22949380.862    22949380.4854   22949386.7824
        -0.000          -0.000
 -14873295.723 9 -11568728.52647  22265289.910    22265290.0304   22265296.8464
        -0.000          -0.000
 98  6 25  0 11 30.0000000  0  9  3  1 23 17  9 21  8 31 29          0.000000064
 -18533721.177 9 -14429339.21548  21597761.851    21597761.7814   21597768.2444
        -0.000          -0.000
 -23342464.265 9 -18172208.40249  20582026.650    20582026.4204   20582032.6624
        -0.000          -0.000
  -4928626.589 9  -3822216.61748  21936536.460    21936536.1324   21936542.3284
        -0.000          -0.000
   7018465.958 9   5321869.36746  22909650.824    22909650.3294   22909657.9334
        -0.000          -0.000
  -7219602.363 9  -5619068.07946  23619748.651    23619748.6684   23619755.2914
        -0.000          -0.000
 -25465458.584 9 -19829592.65048  20927108.016    20927107.7254   20927113.8604
        -0.000          -0.000
 -12675972.213 9  -9869791.34846  22829656.265    22829656.0284   22829663.2954
        -0.000          -0.000
  -9125461.130 9  -7100922.61947  22942135.534    22942135.1904   22942141.4414
        -0.000          -0.000
 -14958756.836 9 -11635321.51047  22249027.113    22249027.2594   22249034.0484
        -0.000          -0.000
 98  6 25  0 12  0.0000000  0  9  3  1 23 17  9 21  8 31 29          0.000000077
 -18503815.937 9 -14406036.45548  21603452.620    21603452.5514   21603459.0574
        -0.000          -0.000
 -23383673.553 9 -18204319.49949  20574184.758    20574184.5194   20574190.7654
        -0.000          -0.000
  -4885441.766 9  -3788566.11248  21944754.252    21944753.9334   21944760.1034
        -0.000          -0.000
   7102680.377 9   5387490.94846  22925676.314    22925675.8154   22925683.4284
        -0.000          -0.000
  -7203742.526 9  -5606709.75346  23622766.770    23622766.7194   23622773.2764
        -0.000          -0.000
 -25471160.298 9 -19834035.53548  20926023.005    20926022.7164   20926028.8394
        -0.000          -0.000
 -12728993.417 9  -9911106.51546  22819566.647    22819566.4734   22819573.6134
        -0.000          -0.000
  -9162992.697 9  -7130167.98046  22934993.443    22934993.1154   22934999.3874
        -0.000          -0.000
 -15043937.985 9 -11701696.34847  22232817.572    22232817.7914   22232824.4684
        -0.000          -0.000
 98  6 25  0 12 30.0000000  0  9  3  1 23 17  9 21  8 31 29          0.000000092
 -18473377.510 9 -14382318.21948  21609244.874    21609244.8414   21609251.3464
        -0.000          -0.000
 -23424406.021 9 -18236059.05649  20566433.555    20566433.3354   20566439.5764
        -0.000          -0.000
  -4842172.685 9  -3754849.95648  21952988.064    21952987.7734   21952993.9054
        -0.000          -0.000
   7187191.620 9   5453343.79546  22941758.285    22941757.8524   22941765.5084
        -0.000          -0.000
  -7187343.408 9  -5593931.21846  23625887.518    23625887.4484   23625893.9224
        -0.000          -0.000
 -25476707.052 9 -19838357.67648  20924967.496    20924967.1874   20924973.3304
        -0.000          -0.000
 -12781624.544 9  -9952117.75246  22809551.415    22809551.1674   22809558.1374
        -0.000          -0.000
  -9199981.247 9  -7158990.20746  22927954.744    22927954.3784   22927960.6934
        -0.000          -0.000
 -15128824.045 9 -11767841.23947  22216664.247    22216664.4134   22216671.0964
        -0.000          -0.000
 98  6 25  0 13  0.0000000  0  9  3  1 23 17  9 21  8 31 29          0.000000102
 -18442412.107 9 -14358189.35448  21615137.423    21615137.3824   21615143.8754
        -0.000          -0.000
 -23464665.104 9 -18267429.73949  20558772.495    20558772.2884   20558778.5004
        -0.000          -0.000
  -4798840.928 9  -3721084.95948  21961233.877    21961233.5544   21961239.7204
        -0.000          -0.000
   7271991.985 9   5519421.92746  22957895.270    22957894.8204   22957902.5604
        -0.000          -0.000
  -7170412.322 9  -5580738.15246  23629109.266    23629109.2284   23629115.8594
        -0.000          -0.000
 -25482108.819 9 -19842566.84148  20923939.577    20923939.2884   20923945.4144
        -0.000          -0.000
 -12833872.402 9  -9992830.30547  22799608.931    22799608.6794   22799615.7824
        -0.000          -0.000
  -9236448.159 9  -7187405.96947  22921015.384    22921015.0124   22921021.3354
        -0.000          -0.000
 -15213408.830 9 -11833751.39447  22200568.246    22200568.4464   22200575.0914
        -0.000          -0.000
 98  6 25  0 13 30.0000000  0  9  3  1 23 17  9 21  8 31 29          0.000000110
 -18410906.905 9 -14333639.86048  21621132.666    21621132.6214   21621139.1444
        -0.000          -0.000
 -23504420.779 9 -18298408.15349  20551207.220    20551206.9964   20551213.1884
        -0.000          -0.000
  -4755442.775 9  -3687268.22048  21969492.249    21969491.9274   21969498.1444
        -0.000          -0.000
   7357083.065 9   5585726.60146  22974087.637    22974087.2014   22974094.9534
        -0.000          -0.000
  -7152930.079 9  -5567115.64746  23632436.152    23632436.1244   23632442.5194
        -0.000          -0.000
 -25487343.495 9 -19846645.80149  20922943.464    20922943.1784   20922949.2944
        -0.000          -0.000
 -12885717.430 9 -10033228.96446  22789743.209    22789742.8604   22789750.0454
        -0.000          -0.000
  -9272389.139 9  -7215411.91447  22914176.028    22914175.6374   22914182.0504
        -0.000          -0.000
 -15297661.621 9 -11899402.81847  22184535.428    22184535.6164   22184542.2574
        -0.000          -0.000
 98  6 25  0 14  0.0000000  0  9  3  1 23 17  9 21  8 31 29          0.000000106
 -18378866.903 9 -14308673.65148  21627229.678    21627229.6414   21627236.1744
        -0.000          -0.000
 -23543665.791 9 -18328988.65449  20543739.114    20543738.8964   20543745.0614
        -0.000          -0.000
  -4711977.207 9  -3653398.97148  21977763.520    21977763.1514   21977769.3964
        -0.000          -0.000
   7442468.043 9   5652260.27046  22990335.825    22990335.4224   22990343.2874
        -0.000          -0.000
  -7134903.412 9  -5553068.89546  23635866.566    23635866.5704   23635872.9524
        -0.000          -0.000
 -25492397.034 9 -19850583.62249  20921981.801    20921981.5144   20921987.6114
        -0.000          -0.000
 -12937153.443 9 -10073308.90446  22779955.084    22779954.7954   22779962.0134
        -0.000          -0.000
  -9307811.942 9  -7243014.10046  22907435.163    22907434.8134   22907441.2384
        -0.000          -0.000
 -15381559.004 9 -11964777.32947  22168570.219    22168570.4384   22168577.0354
        -0.000          -0.000
 98  6 25  0 14 30.0000000  0  9  3  1 23 17  9 21  8 31 29          0.000000104
 -18346271.466 9 -14283274.62948  21633432.438    21633432.3664   21633438.8784
        -0.000          -0.000
 -23582378.878 9 -18359154.66449  20536372.254    20536372.0164   20536378.1924
        -0.000          -0.000
  -4668432.751 9  -3619468.24248  21986049.730    21986049.3654   21986055.6394
        -0.000          -0.000
   7528169.236 9   5719040.35646  23006644.425    23006643.9024   23006651.7554
        -0.000          -0.000
  -7116318.952 9  -5538587.50946  23639403.164    23639403.0924   23639409.4284
        -0.000          -0.000
 -25497245.159 9 -19854361.37649  20921059.197    20921058.9124   20921064.9984
        -0.000          -0.000
 -12988150.312 9 -10113046.68546  22770250.722    22770250.4644   22770257.4694
        -0.000          -0.000
  -9342696.519 9  -7270196.88446  22900796.804    22900796.5084   22900802.8434
        -0.000          -0.000
 -15465080.912 9 -12029859.25247  22152676.458    22152676.6814   22152683.2774
        -0.000          -0.000
 98  6 25  0 15  0.0000000  0  9  3  1 23 17  9 21  8 31 29          0.000000099
 -18313120.220 9 -14257442.51048  21639740.975    21639740.8994   21639747.4004
        -0.000          -0.000
 -23620555.960 9 -18388903.00949  20529107.358    20529107.1454   20529113.3164
        -0.000          -0.000
  -4624796.439 9  -3585465.92348  21994353.492    21994353.1164   21994359.3574
        -0.000          -0.000
   7614185.548 9   5786065.99846  23023012.861    23023012.3404   23023020.2484
        -0.000          -0.000
  -7097182.333 9  -5523675.84946  23643044.699    23643044.6604   23643051.0894
        -0.000          -0.000
 -25501886.995 9 -19857978.38549  20920175.886    20920175.6144   20920181.7024
        -0.000          -0.000
 -13038691.158 9 -10152429.11446  22760633.201    22760632.9124   22760639.7494
        -0.000          -0.000
  -9377043.101 9  -7296960.44647  22894260.861    22894260.6034   22894266.8984
        -0.000          -0.000
 -15548223.534 9 -12094645.62247  22136854.861    22136855.0254   22136861.7114
        -0.000          -0.000
 98  6 25  0 15 30.0000000  0  9  3  1 23 17  9 21  8 31 29          0.000000057
 -18279472.982 9 -14231223.91248  21646143.833    21646143.7274   21646150.2164
        -0.000          -0.000
 -23658260.898 9 -18418283.45949  20521932.385    20521932.1224   20521938.2794
        -0.000          -0.000
  -4581104.220 9  -3551420.06448  22002667.889    22002667.5104   22002673.7174
        -0.000          -0.000
   7700454.275 9   5853288.29446  23039429.331    23039428.7654   23039436.8354
        -0.000          -0.000
  -7077548.234 9  -5508376.55446  23646781.046    23646780.9444   23646787.4404
        -0.000          -0.000
 -25506386.510 9 -19861484.49849  20919319.721    20919319.4174   20919325.4944
        -0.000          -0.000
 -13088827.620 9 -10191496.43446  22751092.446    22751092.1174   22751099.0064
        -0.000          -0.000
  -9410896.580 9  -7323339.78947  22887818.872    22887818.5434   22887824.8264
        -0.000          -0.000
 -15631058.128 9 -12159191.99847  22121091.835    22121092.0374   22121098.7334
        -0.000          -0.000
 98  6 25  0 16  0.0000000  0  9  3  1 23 17  9 21  8 31 29          0.000000009
 -18245287.826 9 -14204586.14848  21652649.054    21652648.9534   21652655.4604
        -0.000          -0.000
 -23695471.517 9 -18447278.71449  20514851.465    20514851.1644   20514857.3074
        -0.000          -0.000
  -4537307.389 9  -3517292.67748  22011002.189    22011001.7814   22011007.9994
        -0.000          -0.000
   7787010.502 9   5920734.64146  23055900.480    23055899.9924   23055908.0444
        -0.000          -0.000
  -7057383.668 9  -5492663.90746  23650618.136    23650618.0284   23650624.7054
        -0.000          -0.000
 -25510722.634 9 -19864863.28749  20918494.609    20918494.2884   20918500.3544
        -0.000          -0.000
 -13138524.086 9 -10230220.89447  22741635.480    22741635.1944   22741642.0534
        -0.000          -0.000
  -9444203.620 9  -7349293.33647  22881480.760    22881480.4014   22881486.7424
        -0.000          -0.000
 -15713571.638 9 -12223488.15547  22105389.985    22105390.1674   22105396.8434
        -0.000          -0.000
 98  6 25  0 16 30.0000000  0  9  3  1 23 17  9 21  8 31 29         -0.000000013
 -18210517.023 9 -14177492.04448  21659265.731    21659265.6524   21659272.1684
        -0.000          -0.000
 -23732130.580 9 -18475844.18549  20507875.494    20507875.2034   20507881.3124
        -0.000          -0.000
  -4493351.689 9  -3483041.49948  22019366.688    22019366.2904   22019372.5194
        -0.000          -0.000
   7873882.560 9   5988427.09546  23072431.827    23072431.3284   23072439.3284
        -0.000          -0.000
  -7036634.566 9  -5476495.79346  23654566.603    23654566.5234   23654573.1714
        -0.000          -0.000
 -25514863.205 9 -19868089.69649  20917706.738    20917706.3734   20917712.4364
        -0.000          -0.000
 -13187752.444 9 -10268580.61347  22732267.619    22732267.3894   22732274.2324
        -0.000          -0.000
  -9476894.629 9  -7374766.84447  22875259.806    22875259.4574   22875265.8884
        -0.000          -0.000
 -15795744.932 9 -12287519.22347  22089752.960    22089753.1024   22089759.7074
        -0.000          -0.000
 98  6 25  0 17  0.0000000  0  9  3  1 23 17  9 21  8 31 29         -0.000000018
 -18175178.089 9 -14149955.23848  21665990.668    21665990.4874   21665996.9904
        -0.000          -0.000
 -23768257.027 9 -18503994.63549  20501000.850    20501000.5534   20501006.6734
        -0.000          -0.000
  -4449246.378 9  -3448673.74048  22027759.762    22027759.3294   22027765.5194
        -0.000          -0.000
   7961047.223 9   6056347.54546  23089018.751    23089018.2264   23089026.3424
        -0.000          -0.000
  -7015311.501 9  -5459880.43046  23658624.442    23658624.3064   23658630.9214
        -0.000          -0.000
 -25518827.544 9 -19871178.78748  20916952.345    20916951.9564   20916958.0414
        -0.000          -0.000
 -13236535.872 9 -10306593.61247  22722984.485    22722984.1854   22722991.0894
        -0.000          -0.000
  -9508983.373 9  -7399771.07347  22869153.635    22869153.2554   22869159.6284
        -0.000          -0.000
 -15877595.197 9 -12351298.58247  22074177.467    22074177.5254   22074184.0394
        -0.000          -0.000
 98  6 25  0 17 30.0000000  0  9  3  1 23 17  9 21  8 31 29         -0.000000013
 -18139296.719 9 -14121995.74948  21672818.729    21672818.5404   21672825.0144
        -0.000          -0.000
 -23803873.953 9 -18531748.05449  20494223.197    20494222.8854   20494228.9894
        -0.000          -0.000
  -4405041.117 9  -3414228.10047  22036171.758    22036171.2964   22036177.4944
        -0.000          -0.000
   8048472.412 9   6124470.99546  23105655.210    23105654.7284   23105662.9394
        -0.000          -0.000
  -6993429.652 9  -5442829.64946  23662788.560    23662788.3424   23662794.9034
        -0.000          -0.000
 -25522640.302 9 -19874149.75648  20916226.846    20916226.4484   20916232.5304
        -0.000          -0.000
 -13284894.527 9 -10344275.61647  22713782.196    22713781.8264   22713788.7524
        -0.000          -0.000
  -9540484.988 9  -7424317.78447  22863159.132    22863158.7454   22863165.0634
        -0.000          -0.000
 -15959145.001 9 -12414843.80447  22058659.022    22058659.0784   22058665.5964
        -0.000          -0.000
 98  6 25  0 18  0.0000000  0  9  3  1 23 17  9 21  8 31 29         -0.000000004
 -18102893.170 9 -14093629.37048  21679746.207    21679745.9744   21679752.4504
        -0.000          -0.000
 -23838988.345 9 -18559109.88949  20487541.152    20487540.8214   20487546.9074
        -0.000          -0.000
  -4360770.145 9  -3379731.25447  22044596.254    22044595.8044   22044602.0114
        -0.000          -0.000
   8136138.681 9   6192782.31246  23122337.512    23122337.0694   23122345.2844
        -0.000          -0.000
  -6970992.832 9  -5425346.40346  23667058.066    23667057.9274   23667064.3504
        -0.000          -0.000
 -25526310.244 9 -19877009.44148  20915528.520    20915528.0914   20915534.1594
        -0.000          -0.000
 -13332837.815 9 -10381633.98647  22704658.943    22704658.5624   22704665.4084
        -0.000          -0.000
  -9571411.195 9  -7448416.13747  22857274.070    22857273.6994   22857280.0134
        -0.000          -0.000
 -16040400.610 9 -12478159.79747  22043196.546    22043196.6234   22043203.1284
        -0.000          -0.000
 98  6 25  0 18 30.0000000  0  9  3  1 23 17  9 21  8 31 29         -0.000000004
 -18066008.206 9 -14064887.86448  21686765.230    21686764.9954   21686771.4894
        -0.000          -0.000
 -23873637.843 9 -18586109.47049  20480947.521    20480947.1954   20480953.2494
        -0.000          -0.000
  -4316475.162 9  -3345215.69447  22053025.424    22053024.9484   22053031.1304
        -0.000          -0.000
   8224019.361 9   6261260.68946  23139060.703    23139060.2724   23139068.4874
        -0.000          -0.000
  -6948016.902 9  -5407443.08846  23671430.277    23671430.1704   23671436.5024
        -0.000          -0.000
 -25529870.297 9 -19879783.50349  20914851.011    20914850.6104   20914856.6994
        -0.000          -0.000
 -13380390.957 9 -10418688.32747  22695609.849    22695609.4374   22695616.2704
        -0.000          -0.000
  -9601802.779 9  -7472097.89347  22851490.849    22851490.4124   22851496.7554
        -0.000          -0.000
 -16121375.832 9 -12541257.31047  22027787.455    22027787.5304   22027793.9774
        -0.000          -0.000
 98  6 25  0 19  0.0000000  0  9  3  1 23 17  9 21  8 31 29          0.000000007
 -18028625.727 9 -14035758.68448  21693878.906    21693878.6904   21693885.1514
        -0.000          -0.000
 -23907817.517 9 -18612742.95349  20474443.353    20474443.0384   20474449.0744
        -0.000          -0.000
  -4272159.507 9  -3310684.02247  22061458.428    22061457.9214   22061464.1354
        -0.000          -0.000
   8312143.232 9   6329928.57146  23155830.250    23155829.8824   23155838.0054
        -0.000          -0.000
  -6924490.747 9  -5389111.01346  23675907.119    23675906.9714   23675913.5274
        -0.000          -0.000
 -25533307.795 9 -19882462.06249  20914196.956    20914196.5234   20914202.6074
        -0.000          -0.000
 -13427510.709 9 -10455404.96347  22686643.043    22686642.6844   22686649.6534
        -0.000          -0.000
  -9631657.649 9  -7495361.44147  22845809.728    22845809.2664   22845815.5744
        -0.000          -0.000
 -16202030.851 9 -12604105.30547  22012439.235    22012439.3154   22012445.7634
        -0.000          -0.000
 98  6 25  0 19 30.0000000  0  9  3  1 23 17  9 21  8 31 29          0.000000013
 -17990768.602 9 -14006259.65848  21701082.924    21701082.7034   21701089.1484
        -0.000          -0.000
 -23941541.326 9 -18639021.21749  20468025.981    20468025.6314   20468031.6554
        -0.000          -0.000
  -4227853.812 9  -3276160.12647  22069889.490    22069889.0244   22069895.2824
        -0.000          -0.000
   8400509.830 9   6398785.58246  23172645.930    23172645.4524   23172653.6184
        -0.000          -0.000
  -6900447.793 9  -5370376.25546  23680482.318    23680482.2044   23680488.9394
        -0.000          -0.000
 -25536650.525 9 -19885066.78249  20913560.853    20913560.4234   20913566.4684
        -0.000          -0.000
 -13474217.635 9 -10491799.91147  22677755.047    22677754.6574   22677761.5764
        -0.000          -0.000
  -9660998.561 9  -7518224.48647  22840226.280    22840225.8214   22840232.2144
        -0.000          -0.000
 -16282388.630 9 -12666721.68547  21997147.597    21997147.6824   21997154.1224
        -0.000          -0.000
 98  6 25  0 20  0.0000000  0  9  3  1 23 17  9 21  8 31 29          0.000000011
 -17952441.945 9 -13976394.74648  21708376.265    21708376.0444   21708382.4934
        -0.000          -0.000
 -23974818.179 9 -18664951.20349  20461693.612    20461693.2554   20461699.2674
        -0.000          -0.000
  -4183524.075 9  -3241617.48747  22078325.203    22078324.6944   22078330.9724
        -0.000          -0.000
   8489134.451 9   6467843.67146  23189510.760    23189510.1764   23189518.4144
        -0.000          -0.000
  -6875898.963 9  -5351247.34446  23685153.749    23685153.6594   23685160.4904
        -0.000          -0.000
 -25539887.495 9 -19887589.08949  20912944.883    20912944.4504   20912950.4974
        -0.000          -0.000
 -13520516.195 9 -10527876.65847  22668944.721    22668944.2774   22668951.1704
        -0.000          -0.000
  -9689825.322 9  -7540686.89147  22834740.692    22834740.2384   22834746.6884
        -0.000          -0.000
 -16362447.311 9 -12729105.01647  21981912.884    21981912.9384   21981919.3954
        -0.000          -0.000
 98  6 25  0 20 30.0000000  0  9  3  1 23 17  9 21  8 31 29          0.000000028
 -17913572.870 9 -13946107.17948  21715772.830    21715772.5944   21715779.0254
        -0.000          -0.000
 -24007573.008 9 -18690474.42649  20455460.536    20455460.1704   20455466.1734
        -0.000          -0.000
  -4139086.798 9  -3206991.05347  22086781.297    22086780.8104   22086787.0794
        -0.000          -0.000
   8578094.675 9   6537163.23146  23206439.401    23206438.7664   23206447.0674
        -0.000          -0.000
  -6850796.275 9  -5331686.81246  23689930.763    23689930.6524   23689937.0414
        -0.000          -0.000
 -25542942.628 9 -19889969.70949  20912363.482    20912363.0724   20912369.1184
        -0.000          -0.000
 -13566338.959 9 -10563582.66147  22660224.850    22660224.4334   22660231.3864
        -0.000          -0.000
  -9718083.121 9  -7562705.96047  22829363.406    22829362.9414   22829369.3634
        -0.000          -0.000
 -16442133.026 9 -12791197.71147  21966749.183    21966749.2064   21966755.6354
        -0.000          -0.000
 98  6 25  0 21  0.0000000  0  9  3  1 23 17  9 21  8 31 29          0.000000034
 -17874177.778 9 -13915409.73248  21723269.405    21723269.2144   21723275.6624
        -0.000          -0.000
 -24039800.264 9 -18715586.54849  20449327.851    20449327.5054   20449333.5034
        -0.000          -0.000
  -4094555.329 9  -3172291.22147  22095255.334    22095254.8834   22095261.1394
        -0.000          -0.000
   8667363.579 9   6606723.34446  23223426.804    23223426.1564   23223434.3474
        -0.000          -0.000
  -6825179.450 9  -5311725.64846  23694805.360    23694805.3774   23694811.5814
        -0.000          -0.000
 -25545824.266 9 -19892215.13349  20911815.096    20911814.6924   20911820.7624
        -0.000          -0.000
 -13611708.526 9 -10598935.52547  22651591.283    22651590.8804   22651597.7644
        -0.000          -0.000
  -9745787.500 9  -7584293.77847  22824091.385    22824090.9314   22824097.3654
        -0.000          -0.000
 -16521465.690 9 -12853015.31347  21951652.606    21951652.6374   21951659.0504
        -0.000          -0.000
 98  6 25  0 21 30.0000000  0  9  3  1 23 17  9 21  8 31 29          0.000000024
 -17834257.815 9 -13884303.28548  21730865.919    21730865.7154   21730872.2264
        -0.000          -0.000
 -24071498.831 9 -18740286.69849  20443295.788    20443295.4414   20443301.4554
        -0.000          -0.000
  -4049906.507 9  -3137499.94047  22103751.761    22103751.2814   22103757.5404
        -0.000          -0.000
   8756925.201 9   6676511.56046  23240469.837    23240469.1884   23240477.4414
        -0.000          -0.000
  -6799038.440 9  -5291356.02246  23699780.049    23699779.9934   23699785.9444
        -0.000          -0.000
 -25548520.688 9 -19894316.23449  20911301.923    20911301.5274   20911307.6104
        -0.000          -0.000
 -13656637.034 9 -10633944.71247  22643041.726    22643041.2794   22643048.0694
        -0.000          -0.000
  -9772923.602 9  -7605438.78347  22818927.376    22818927.0264   22818933.4844
        -0.000          -0.000
 -16600463.757 9 -12914572.18447  21936619.653    21936619.7244   21936626.1234
        -0.000          -0.000
 98  6 25  0 22  0.0000000  0  9  3  1 23 17  9 21  8 31 29          0.000000007
 -17793811.838 9 -13852786.97348  21738562.449    21738562.2864   21738568.8654
        -0.000          -0.000
 -24102660.946 9 -18764568.85049  20437365.816    20437365.4764   20437371.4854
        -0.000          -0.000
  -4005130.210 9  -3102609.33847  22112272.393    22112271.9534   22112278.2104
        -0.000          -0.000
   8846757.798 9   6746510.90846  23257564.321    23257563.7334   23257572.0404
        -0.000          -0.000
  -6772353.461 9  -5270562.53946  23704858.139    23704858.0694   23704864.1624
        -0.000          -0.000
 -25551023.010 9 -19896266.09549  20910825.734    20910825.3574   20910831.4224
        -0.000          -0.000
 -13701111.834 9 -10668600.34747  22634578.339    22634577.9784   22634584.7904
        -0.000          -0.000
  -9799473.782 9  -7626127.23947  22813875.006    22813874.7034   22813881.1384
        -0.000          -0.000
 -16679113.970 9 -12975858.00047  21921652.955    21921653.0454   21921659.4724
        -0.000          -0.000
 98  6 25  0 22 30.0000000  0  9  3  1 23 17  9 21  8 31 29         -0.000000007
 -17752826.547 9 -13820850.40448  21746361.758    21746361.5374   21746368.1174
        -0.000          -0.000
 -24133266.293 9 -18788417.14649  20431541.744    20431541.4284   20431547.4244
        -0.000          -0.000
  -3960244.407 9  -3067633.39647  22120813.854    22120813.4104   22120819.6824
        -0.000          -0.000
   8936863.377 9   6816722.98446  23274711.023    23274710.4834   23274718.6544
        -0.000          -0.000
  -6745105.345 9  -5249330.24646  23710043.236    23710043.1494   23710049.4794
        -0.000          -0.000
 -25553343.313 9 -19898074.11749  20910384.228    20910383.8424   20910389.8884
        -0.000          -0.000
 -13745120.890 9 -10702893.07847  22626203.556    22626203.2754   22626210.0094
        -0.000          -0.000
  -9825433.734 9  -7646355.74947  22808935.024    22808934.6734   22808941.1714
        -0.000          -0.000
 -16757403.729 9 -13036862.94247  21906754.878    21906754.9504   21906761.3504
        -0.000          -0.000
 98  6 25  0 23  0.0000000  0  9  3  1 23 17  9 21  8 31 29         -0.000000010
 -17711315.522 9 -13788504.18148  21754261.011    21754260.8194   21754267.4024
        -0.000          -0.000
 -24163344.008 9 -18811854.30449  20425818.142    20425817.8214   20425823.7954
        -0.000          -0.000
  -3915273.661 9  -3032591.27647  22129371.470    22129371.0354   22129377.2764
        -0.000          -0.000
   9027222.328 9   6887132.46846  23291905.893    23291905.3294   23291913.4044
        -0.000          -0.000
  -6717281.946 9  -5227649.69246  23715337.705    23715337.6034   23715344.2364
        -0.000          -0.000
 -25555496.113 9 -19899751.61949  20909974.537    20909974.1564   20909980.2064
        -0.000          -0.000
 -13788666.882 9 -10736824.95947  22617917.107    22617916.7824   22617923.5204
        -0.000          -0.000
  -9850803.520 9  -7666124.40847  22804107.295    22804107.0054   22804113.4674
        -0.000          -0.000
 -16835355.867 9 -13097604.81147  21891921.069    21891921.1394   21891927.5334
        -0.000          -0.000
 98  6 25  0 23 30.0000000  0  9  3  1 23 17  9 21  8 31 29          0.000000008
 -17669297.793 9 -13755763.11848  21762256.739    21762256.5534   21762263.1504
        -0.000          -0.000
 -24192912.186 9 -18834894.42549  20420191.476    20420191.1664   20420197.1334
        -0.000          -0.000
  -3870229.228 9  -2997491.72447  22137943.190    22137942.7214   22137948.9444
        -0.000          -0.000
   9117840.070 9   6957743.65646  23309149.850    23309149.2324   23309157.4584
        -0.000          -0.000
  -6688868.661 9  -5205509.48246  23720744.496    23720744.4614   23720751.1064
        -0.000          -0.000
 -25557484.433 9 -19901300.96449  20909596.169    20909595.7784   20909601.8164
        -0.000          -0.000
 -13831740.247 9 -10770388.59547  22609720.461    22609720.1674   22609726.9544
        -0.000          -0.000
  -9875592.903 9  -7685440.81247  22799390.065    22799389.7714   22799396.0474
        -0.000          -0.000
 -16912977.071 9 -13158088.80547  21877150.120    21877150.2344   21877156.6304
        -0.000          -0.000
 98  6 25  0 24  0.0000000  0  9  3  1 23 17  9 21  8 31 29          0.000000028
 -17626797.030 9 -13722645.66648  21770344.291    21770344.1444   21770350.7634
        -0.000          -0.000
 -24221990.718 9 -18857552.99249  20414658.008    20414657.6974   20414663.6484
        -0.000          -0.000
  -3825145.731 9  -2962361.73247  22146522.295    22146521.8324   22146528.0154
        -0.000          -0.000
   9208709.788 9   7028551.13646  23326441.727    23326441.1714   23326449.5334
        -0.000          -0.000
  -6659898.149 9  -5182935.07146  23726257.256    23726257.2044   23726264.0434
        -0.000          -0.000
 -25559327.988 9 -19902737.49249  20909245.309    20909244.9514   20909250.9904
        -0.000          -0.000
 -13874342.321 9 -10803584.96647  22601613.460    22601613.1994   22601620.0284
        -0.000          -0.000
  -9899844.154 9  -7704337.87647  22794775.225    22794774.8864   22794781.2034
        -0.000          -0.000
 -16990266.051 9 -13218313.92347  21862442.408    21862442.5464   21862448.9384
        -0.000          -0.000
 98  6 25  0 24 30.0000000  0  9  3  1 23 17  9 21  8 31 29          0.000000050
 -17583804.647 9 -13689145.12648  21778525.560    21778525.4004   21778532.0114
        -0.000          -0.000
 -24250582.783 9 -18879832.50149  20409217.102    20409216.7734   20409222.7404
        -0.000          -0.000
  -3780010.406 9  -2927191.36847  22155111.221    22155110.8064   22155117.0024
        -0.000          -0.000
   9299853.963 9   7099572.49746  23343785.883    23343785.3734   23343793.6514
        -0.000          -0.000
  -6630368.988 9  -5159925.33346  23731876.587    23731876.5234   23731883.0474
        -0.000          -0.000
 -25561015.677 9 -19904052.57449  20908924.134    20908923.7834   20908929.8114
        -0.000          -0.000
 -13916464.909 9 -10836407.72147  22593597.666    22593597.4184   22593604.2124
        -0.000          -0.000
  -9923572.991 9  -7722827.88547  22790259.740    22790259.4424   22790265.7504
        -0.000          -0.000
 -17067213.381 9 -13278272.82547  21847799.742    21847799.8634   21847806.2984
        -0.000          -0.000
 98  6 25  0 25  0.0000000  0  9  3  1 23 17  9 21  8 31 29          0.000000061
 -17540346.804 9 -13655281.90448  21786795.321    21786795.1564   21786801.8284
        -0.000          -0.000
 -24278693.834 9 -18901737.19849  20403867.715    20403867.3974   20403873.3394
        -0.000          -0.000
  -3734808.719 9  -2891969.28847  22163712.799    22163712.3914   22163718.6224
        -0.000          -0.000
   9391268.919 9   7170804.85646  23361181.661    23361181.1904   23361189.3634
        -0.000          -0.000
  -6600297.453 9  -5136492.97046  23737599.150    23737599.0114   23737605.4904
        -0.000          -0.000
 -25562546.690 9 -19905245.56749  20908632.813    20908632.4354   20908638.4974
        -0.000          -0.000
 -13958109.199 9 -10868857.77947  22585673.002    22585672.7344   22585679.4924
        -0.000          -0.000
  -9946787.867 9  -7740917.40147  22785842.187    22785841.8304   22785848.1044
        -0.000          -0.000
 -17143820.781 9 -13337966.85348  21833221.811    21833221.9254   21833228.3634
        -0.000          -0.000
 98  6 25  0 25 30.0000000  0  9  3  1 23 17  9 21  8 31 29          0.000000066
 -17496405.653 9 -13621042.07448  21795157.076    21795156.8874   21795163.5764
        -0.000          -0.000
 -24306287.536 9 -18923238.76049  20398616.783    20398616.4824   20398622.4004
        -0.000          -0.000
  -3689501.590 9  -2856665.04647  22172334.459    22172334.0334   22172340.2754
        -0.000          -0.000
   9482979.534 9   7242267.59446  23378633.643    23378633.1094   23378641.3994
        -0.000          -0.000
  -6569688.154 9  -5112641.55746  23743423.996    23743423.8104   23743430.4334
        -0.000          -0.000
 -25563911.952 9 -19906309.40549  20908373.016    20908372.6554   20908378.6914
        -0.000          -0.000
 -13999262.260 9 -10900925.04547  22577841.776    22577841.5064   22577848.3224
        -0.000          -0.000
  -9969463.098 9  -7758586.41247  22781527.190    22781526.8374   22781533.0654
        -0.000          -0.000
 -17220042.756 9 -13397360.53848  21818717.218    21818717.3264   21818723.7244
        -0.000          -0.000
 98  6 25  0 26  0.0000000  0  9  3  1 23 17  9 21  8 31 29          0.000000066
 -17451974.676 9 -13586420.56248  21803612.030    21803611.8444   21803618.5284
        -0.000          -0.000
 -24333373.889 9 -18944344.98449  20393462.401    20393462.1004   20393468.0234
        -0.000          -0.000
  -3644092.922 9  -2821281.67247  22180975.505    22180975.0704   22180981.2934
        -0.000          -0.000
   9574964.242 9   7313943.91346  23396137.811    23396137.3014   23396145.6354
        -0.000          -0.000
  -6538563.940 9  -5088388.95346  23749346.593    23749346.4394   23749353.3284
        -0.000          -0.000
 -25565142.587 9 -19907268.33249  20908138.840    20908138.4774   20908144.5114
        -0.000          -0.000
 -14039953.458 9 -10932632.43547  22570098.514    22570098.2764   22570104.9704
        -0.000          -0.000
  -9991595.658 9  -7775832.56947  22777315.556    22777315.1734   22777321.3534
        -0.000          -0.000
 -17295882.558 9 -13456456.42748  21804285.331    21804285.4774   21804291.8634
        -0.000          -0.000
 98  6 25  0 26 30.0000000  0  9  3  1 23 17  9 21  8 31 29          0.000000071
 -17407056.944 9 -13551419.76648  21812159.612    21812159.4264   21812166.0644
        -0.000          -0.000
 -24359957.571 9 -18965059.51949  20388403.682    20388403.3824   20388409.2984
        -0.000          -0.000
  -3598587.644 9  -2785823.01947  22189634.899    22189634.4364   22189640.7104
        -0.000          -0.000
   9667210.461 9   7385824.01246  23413691.777    23413691.2294   23413699.5644
        -0.000          -0.000
  -6506924.180 9  -5063734.60846  23755367.487    23755367.2224   23755374.1334
        -0.000          -0.000
 -25566261.251 9 -19908140.01149  20907925.985    20907925.5944   20907931.6614
        -0.000          -0.000
 -14080201.169 9 -10963994.24447  22562439.686    22562439.3784   22562445.9984
        -0.000          -0.000
 -10013164.203 9  -7792639.22447  22773211.079    22773210.7544   22773217.0214
        -0.000          -0.000
 -17371358.130 9 -13515268.50148  21789922.796    21789922.8904   21789929.3144
        -0.000          -0.000
 98  6 25  0 27  0.0000000  0  9  3  1 23 17  9 21  8 31 29          0.000000084
 -17361649.971 9 -13516037.74048  21820800.285    21820800.1144   21820806.7564
        -0.000          -0.000
 -24386025.957 9 -18985372.52149  20383443.007    20383442.7164   20383448.6324
        -0.000          -0.000
  -3552988.605 9  -2750291.31747  22198311.982    22198311.6194   22198317.9284
        -0.000          -0.000
   9759710.883 9   7457902.17846  23431293.849    23431293.4634   23431301.7114
        -0.000          -0.000
  -6474778.147 9  -5038685.74146  23761484.772    23761484.5564   23761491.4134
        -0.000          -0.000
 -25567264.965 9 -19908922.11949  20907734.949    20907734.5674   20907740.6274
        -0.000          -0.000
 -14120002.871 9 -10995008.51147  22554865.710    22554865.3624   22554871.9584
        -0.000          -0.000
 -10034137.012 9  -7808981.66247  22769220.091    22769219.7374   22769226.0954
        -0.000          -0.000
 -17446469.756 9 -13573796.98348  21775629.453    21775629.5354   21775635.9464
        -0.000          -0.000
 98  6 25  0 27 30.0000000  0  9  3  1 23 17  9 21  8 31 29          0.000000095
 -17315757.295 9 -13480277.24948  21829533.394    21829533.2694   21829539.9054
        -0.000          -0.000
 -24411615.801 9 -19005312.63349  20378573.370    20378573.0774   20378579.0054
        -0.000          -0.000
  -3507338.309 9  -2714719.66847  22206999.019    22206998.6154   22207004.9634
        -0.000          -0.000
   9852420.432 9   7530143.29246  23448936.010    23448935.5794   23448943.7854
        -0.000          -0.000
  -6442150.391 9  -5013261.54446  23767693.632    23767693.3894   23767700.1834
        -0.000          -0.000
 -25568177.302 9 -19909633.02249  20907561.303    20907560.9374   20907567.0004
        -0.000          -0.000
 -14159380.974 9 -11025692.69847  22547372.268    22547371.8894   22547378.4884
        -0.000          -0.000
 -10054532.757 9  -7824874.45947  22765338.915    22765338.5944   22765344.9304
        -0.000          -0.000
 -17521250.740 9 -13632067.81948  21761399.044    21761399.1574   21761405.5764
        -0.000          -0.000
 98  6 25  0 28  0.0000000  0  9  3  1 23 17  9 21  8 31 29          0.000000104
 -17269391.585 9 -13444148.15948  21838356.549    21838356.4104   21838363.0354
        -0.000          -0.000
 -24436736.102 9 -19024886.87649  20373793.147    20373792.8574   20373798.7624
        -0.000          -0.000
  -3461643.027 9  -2679112.96747  22215694.579    22215694.1654   22215700.5234
        -0.000          -0.000
   9945346.229 9   7602552.89746  23466619.313    23466618.8584   23466627.1854
        -0.000          -0.000
  -6409028.207 9  -4987452.03046  23773996.534    23773996.3054   23774003.0454
        -0.000          -0.000
 -25568979.869 9 -19910258.40248  20907408.575    20907408.2124   20907414.2734
        -0.000          -0.000
 -14198314.386 9 -11056030.38347  22539963.583    22539963.1384   22539969.7274
        -0.000          -0.000
 -10074360.497 9  -7840324.63947  22761565.847    22761565.5164   22761571.8774
        -0.000          -0.000
 -17595718.365 9 -13690094.48948  21747228.319    21747228.3974   21747234.7744
        -0.000          -0.000
 98  6 25  0 28 30.0000000  0  9  3  1 23 17  9 21  8 31 29          0.000000104
 -17222552.762 9 -13407650.42047  21847269.671    21847269.5604   21847276.1664
        -0.000          -0.000
 -24461356.023 9 -19044071.20549  20369108.125    20369107.8504   20369113.7104
        -0.000          -0.000
  -3415874.061 9  -2643448.85547  22224404.121    22224403.7354   22224410.0784
        -0.000          -0.000
  10038517.683 9   7675153.94146  23484349.387    23484348.8444   23484357.2114
        -0.000          -0.000
  -6375386.522 9  -4961237.76346  23780398.364    23780398.1434   23780404.7984
        -0.000          -0.000
 -25569618.347 9 -19910755.90748  20907287.082    20907286.7074   20907292.7734
        -0.000          -0.000
 -14236752.217 9 -11085981.89347  22532649.058    22532648.6134   22532655.2464
        -0.000          -0.000
 -10093618.447 9  -7855330.83447  22757901.212    22757900.8934   22757907.2484
        -0.000          -0.000
 -17669859.641 9 -13747866.86148  21733119.676    21733119.7344   21733126.0864
        -0.000          -0.000
 98  6 25  0 29  0.0000000  0  9  3  1 23 17  9 21  8 31 29          0.000000090
 -17175237.048 9 -13370781.05747  21856273.683    21856273.4874   21856280.0934
        -0.000          -0.000
 -24485460.779 9 -19062854.10449  20364521.139    20364520.8464   20364526.6974
        -0.000          -0.000
  -3370007.004 9  -2607708.29947  22233132.360    22233131.9334   22233138.2824
        -0.000          -0.000
  10131948.883 9   7747957.39746  23502128.823    23502128.3344   23502136.6974
        -0.000          -0.000
  -6341218.024 9  -4934612.94746  23786900.219    23786899.9824   23786906.7074
        -0.000          -0.000
 -25570064.385 9 -19911103.45648  20907202.185    20907201.7954   20907207.8694
        -0.000          -0.000
 -14274674.326 9 -11115531.54547  22525432.549    22525432.1694   22525438.8364
        -0.000          -0.000
 -10112309.998 9  -7869895.67147  22754344.262    22754344.0054   22754350.3474
        -0.000          -0.000
 -17743662.264 9 -13805375.34048  21719075.436    21719075.5174   21719081.8414
        -0.000          -0.000
 98  6 25  0 29 30.0000000  0  9  3  1 23 17  9 21  8 31 29          0.000000061
 -17127454.946 9 -13333548.29547  21865366.290    21865366.1524   21865372.7734
        -0.000          -0.000
 -24509061.794 9 -19081244.48749  20360029.996    20360029.6954   20360035.5434
        -0.000          -0.000
  -3324045.645 9  -2571894.26847  22241878.548    22241878.0984   22241884.4474
        -0.000          -0.000
  10225636.503 9   7820960.65646  23519957.114    23519956.5734   23519964.8964
        -0.000          -0.000
  -6306507.901 9  -4907566.11346  23793505.307    23793505.1694   23793511.9234
        -0.000          -0.000
 -25570325.260 9 -19911306.73148  20907152.565    20907152.2004   20907158.2604
        -0.000          -0.000
 -14312079.991 9 -11144678.77947  22518314.265    22518313.9664   22518320.5924
        -0.000          -0.000
 -10130460.020 9  -7884038.53747  22750890.520    22750890.1574   22750896.5284
        -0.000          -0.000
 -17817127.060 9 -13862620.57948  21705095.501    21705095.5954   21705101.9374
        -0.000          -0.000
 98  6 25  0 30  0.0000000  0  9  3  1 23 17  9 21  8 31 29          0.000000029
 -17079201.872 9 -13295948.52447  21874548.539    21874548.4254   21874555.0864
        -0.000          -0.000
 -24532136.321 9 -19099224.61449  20355639.054    20355638.7554   20355644.5914
        -0.000          -0.000
  -3277976.701 9  -2535996.40547  22250645.175    22250644.7494   22250651.0754
        -0.000          -0.000
  10319605.423 9   7894183.09446  23537838.835    23537838.3334   23537846.7304
        -0.000          -0.000
  -6271231.272 9  -4880077.84346  23800218.291    23800218.1814   23800225.0604
        -0.000          -0.000
 -25570384.810 9 -19911353.12548  20907141.255    20907140.8584   20907146.9164
        -0.000          -0.000
 -14348949.021 9 -11173407.84147  22511298.329    22511298.0034   22511304.5554
        -0.000          -0.000
 -10148058.163 9  -7897751.36747  22747541.704    22747541.3554   22747547.7934
        -0.000          -0.000
 -17890229.030 9 -13919583.09648  21691184.659    21691184.7354   21691191.0504
        -0.000          -0.000
 98  6 25  0 30 30.0000000  0  9  3  1 23 17  9 21  8 31 29          0.000000006
 -17030455.419 9 -13257964.31747  21883824.692    21883824.5644   21883831.2694
        -0.000          -0.000
 -24554675.925 9 -19116787.91849  20351349.888    20351349.5844   20351355.4274
        -0.000          -0.000
  -3231803.267 9  -2500017.12047  22259431.762    22259431.3164   22259437.6154
        -0.000          -0.000
  10413842.557 9   7967614.53146  23555771.696    23555771.1194   23555779.5804
        -0.000          -0.000
  -6235384.643 9  -4852145.40846  23807039.948    23807039.7794   23807046.5494
        -0.000          -0.000
 -25570255.372 9 -19911252.26648  20907165.837    20907165.4804   20907171.5434
        -0.000          -0.000
 -14385288.061 9 -11201723.93547  22504383.257    22504382.8904   22504389.4594
        -0.000          -0.000
 -10165084.113 9  -7911018.33147  22744301.746    22744301.3984   22744307.8354
        -0.000          -0.000
 -17962951.740 9 -13976250.09648  21677345.907    21677346.0364   21677352.2874
        -0.000          -0.000
 98  6 25  0 31  0.0000000  0  9  3  1 23 17  9 21  8 31 29         -0.000000003
 -16981219.269 9 -13219598.52347  21893194.036    21893193.8574   21893200.5824
        -0.000          -0.000
 -24576707.081 9 -19133955.03149  20347157.483    20347157.1564   20347163.0014
        -0.000          -0.000
  -3185562.217 9  -2463985.14747  22268231.116    22268230.6854   22268236.9584
        -0.000          -0.000
  10508323.077 9   8041235.61846  23573750.665    23573750.1624   23573758.7744
        -0.000          -0.000
  -6198981.134 9  -4823779.05646  23813967.257    23813967.1144   23813973.9474
        -0.000          -0.000
 -25569978.102 9 -19911036.20948  20907218.588    20907218.2344   20907224.2904
        -0.000          -0.000
 -14421130.421 9 -11229653.01447  22497562.704    22497562.3024   22497568.7364
        -0.000          -0.000
 -10181541.769 9  -7923842.46247  22741169.939    22741169.6064   22741176.0774
        -0.000          -0.000
 -18035296.817 9 -14032622.82648  21663579.077    21663579.1964   21663585.4194
        -0.000          -0.000
 98  6 25  0 31 30.0000000  0  9  3  1 23 17  9 21  8 31 29          0.000000005
 -16931498.655 9 -13180855.22147  21902655.520    21902655.3774   21902662.1694
        -0.000          -0.000
 -24598239.553 9 -19150733.55949  20343059.939    20343059.6434   20343065.4774
        -0.000          -0.000
  -3139286.589 9  -2427926.22947  22277037.115    22277036.6884   22277042.9654
        -0.000          -0.000
  10603039.413 9   8115040.46246  23591774.741    23591774.2344   23591782.8594
        -0.000          -0.000
  -6162025.120 9  -4794982.16446  23820999.535    23820999.4164   23821006.4414
        -0.000          -0.000
 -25569553.668 9 -19910705.47848  20907299.375    20907299.0084   20907305.0834
        -0.000          -0.000
 -14456470.024 9 -11257190.33147  22490837.667    22490837.2884   22490843.7574
        -0.000          -0.000
 -10197434.081 9  -7936226.07547  22738145.738    22738145.3904   22738151.8784
        -0.000          -0.000
 -18107257.871 9 -14088696.31548  21649885.334    21649885.4264   21649891.6574
        -0.000          -0.000
 98  6 25  0 32  0.0000000  0  9  3  1 23 17  9 21  8 31 29          0.000000013
 -16881316.567 9 -13141752.33047  21912204.989    21912204.8064   21912211.5634
        -0.000          -0.000
 -24619282.966 9 -19167131.00349  20339055.503    20339055.1954   20339061.0324
        -0.000          -0.000
  -3092998.378 9  -2391857.51047  22285845.430    22285845.0204   22285851.3054
        -0.000          -0.000
  10697982.322 9   8189021.85646  23609841.884    23609841.2484   23609849.9374
        -0.000          -0.000
  -6124549.067 9  -4765780.09446  23828130.921    23828130.9284   23828137.8094
        -0.000          -0.000
 -25568994.216 9 -19910269.53648  20907405.839    20907405.4644   20907411.5234
        -0.000          -0.000
 -14491325.343 9 -11284350.29447  22484204.784    22484204.4794   22484211.1224
        -0.000          -0.000
 -10212771.415 9  -7948177.23247  22735227.141    22735226.7804   22735233.3294
        -0.000          -0.000
 -18178858.709 9 -14144489.12148  21636260.023    21636260.1694   21636266.3994
        -0.000          -0.000
 98  6 25  0 32 30.0000000  0  9  3  1 23 17  9 21  8 31 29          0.000000007
 -16830691.937 9 -13102304.60547  21921838.526    21921838.3974   21921845.0934
        -0.000          -0.000
 -24639838.837 9 -19183148.54349  20335143.830    20335143.5334   20335149.3954
        -0.000          -0.000
  -3046700.572 9  -2355781.30947  22294655.624    22294655.2224   22294661.4944
        -0.000          -0.000
  10793150.368 9   8263178.70646  23627951.917    23627951.2904   23627959.9854
        -0.000          -0.000
  -6086581.490 9  -4736194.96446  23835356.001    23835355.9564   23835362.9574
        -0.000          -0.000
 -25568308.006 9 -19909734.82348  20907536.422    20907536.0344   20907542.1034
        -0.000          -0.000
 -14525717.092 9 -11311149.02147  22477660.240    22477659.9404   22477666.6204
        -0.000          -0.000
 -10227563.143 9  -7959703.24247  22732412.358    22732412.0094   22732418.5154
        -0.000          -0.000
 -18250122.194 9 -14200019.05448  21622699.022    21622699.1574   21622705.3614
        -0.000          -0.000
 98  6 25  0 33  0.0000000  0  9  3  1 23 17  9 21  8 31 29          0.000000004
 -16779597.110 9 -13062490.48547  21931561.567    21931561.4164   21931568.1754
        -0.000          -0.000
 -24659868.946 9 -19198756.39949  20331332.203    20331331.9124   20331337.7584
        -0.000          -0.000
  -3000348.559 9  -2319662.86747  22303476.102    22303475.7254   22303482.0284
        -0.000          -0.000
  10888596.613 9   8337552.30246  23646114.793    23646114.2164   23646122.9914
        -0.000          -0.000
  -6048083.655 9  -4706196.62346  23842681.854    23842681.7264   23842688.6054
        -0.000          -0.000
 -25567441.437 9 -19909059.56748  20907701.315    20907700.9504   20907707.0014
        -0.000          -0.000
 -14559597.743 9 -11337549.49547  22471212.932    22471212.6334   22471219.3854
        -0.000          -0.000
 -10241782.202 9  -7970783.02247  22729706.601    22729706.2124   22729712.6864
        -0.000          -0.000
 -18321012.926 9 -14255258.53348  21609208.968    21609209.1064   21609215.2514
        -0.000          -0.000
 98  6 25  0 33 30.0000000  0  9  3  1 23 17  9 21  8 31 29          0.000000004
 -16728030.800 9 -13022308.97747  21941374.340    21941374.1834   21941380.9944
        -0.000          -0.000
 -24679367.834 9 -19213950.31249  20327621.693    20327621.3914   20327627.2284
        -0.000          -0.000
  -2953923.242 9  -2283487.30847  22312310.599    22312310.2294   22312316.5214
        -0.000          -0.000
  10984325.263 9   8412145.95746  23664331.458    23664330.8454   23664339.7534
        -0.000          -0.000
  -6009059.821 9  -4675788.44745  23850107.549    23850107.5754   23850114.4804
        -0.000          -0.000
 -25566377.486 9 -19908230.51048  20907903.759    20907903.3904   20907909.4494
        -0.000          -0.000
 -14592955.957 9 -11363542.86847  22464865.107    22464864.7974   22464871.6734
        -0.000          -0.000
 -10255414.291 9  -7981405.41247  22727112.438    22727112.0584   22727118.6164
        -0.000          -0.000
 -18391529.017 9 -14310206.08148  21595790.209    21595790.3164   21595796.4094
        -0.000          -0.000
 98  6 25  0 34  0.0000000  0  9  3  1 23 17  9 21  8 31 29          0.000000006
 -16676000.024 9 -12981765.55147  21951275.513    21951275.3184   21951282.1514
        -0.000          -0.000
 -24698331.351 9 -19228727.05849  20324013.015    20324012.7194   20324018.5634
        -0.000          -0.000
  -2907392.189 9  -2247229.36047  22321165.159    22321164.7794   22321171.1004
        -0.000          -0.000
  11080325.935 8   8486951.61546  23682599.807    23682599.1084   23682608.0274
        -0.000          -0.000
  -5969514.476 9  -4644973.90446  23857632.636    23857632.6944   23857639.6944
        -0.000          -0.000
 -25565129.644 9 -19907258.16148  20908141.265    20908140.8854   20908146.9174
        -0.000          -0.000
 -14625795.235 9 -11389131.87747  22458616.015    22458615.6544   22458622.5174
        -0.000          -0.000
 -10268452.633 9  -7991565.16047  22724631.266    22724630.9354   22724637.4494
        -0.000          -0.000
 -18461678.648 9 -14364868.08248  21582441.184    21582441.2574   21582447.3044
        -0.000          -0.000
 98  6 25  0 34 30.0000000  0  9  3  1 23 17  9 21  8 31 29          0.000000005
 -16623514.909 9 -12940868.09847  21961263.124    21961262.9844   21961269.7634
        -0.000          -0.000
 -24716784.084 9 -19243105.79549  20320501.544    20320501.2704   20320507.1084
        -0.000          -0.000
  -2860757.783 9  -2210890.87547  22330039.410    22330039.0364   22330045.3594
        -0.000          -0.000
  11176562.913 9   8561941.35446  23700913.124    23700912.6094   23700921.3744
        -0.000          -0.000
  -5929458.188 9  -4613761.20046  23865255.452    23865255.5174   23865262.3494
        -0.000          -0.000
 -25563716.752 9 -19906157.21048  20908410.085    20908409.7194   20908415.7444
        -0.000          -0.000
 -14658116.037 9 -11414316.88347  22452465.359    22452465.1024   22452471.9584
        -0.000          -0.000
 -10280910.516 9  -8001272.59647  22722260.674    22722260.2974   22722266.7764
        -0.000          -0.000
 -18531464.758 9 -14419246.82648  21569161.269    21569161.3504   21569167.3824
        -0.000          -0.000
 98  6 25  0 35  0.0000000  0  9  3  1 23 17  9 21  8 31 29          0.000000008
 -16570574.193 9 -12899615.62247  21971337.455    21971337.3104   21971344.1134
        -0.000          -0.000
 -24734734.558 9 -19257093.15249  20317085.670    20317085.3844   20317091.2334
        -0.000          -0.000
  -2814019.203 9  -2174471.21147  22338933.417    22338933.0984   22338939.3964
        -0.000          -0.000
  11273020.510 9   8637103.01846  23719268.458    23719267.9824   23719276.7184
        -0.000          -0.000
  -5888879.650 9  -4582141.57746  23872977.330    23872977.3114   23872984.3914
        -0.000          -0.000
 -25562137.117 9 -19904926.32548  20908710.681    20908710.3414   20908716.3714
        -0.000          -0.000
 -14689905.339 9 -11439087.72447  22446416.086    22446415.8404   22446422.6044
        -0.000          -0.000
 -10292775.640 9  -8010518.13347  22720002.801    22720002.5094   22720008.8884
        -0.000          -0.000
 -18600872.005 9 -14473330.34148  21555953.463    21555953.5544   21555959.5814
        -0.000          -0.000
 98  6 25  0 35 30.0000000  0  9  3  1 23 17  9 21  8 31 29          0.000000014
 -16517177.594 9 -12858007.91547  21981498.556    21981498.3854   21981505.1374
        -0.000          -0.000
 -24752171.466 9 -19270680.33349  20313767.529    20313767.2324   20313773.0994
        -0.000          -0.000
  -2767170.304 9  -2137965.58547  22347848.528    22347848.1674   22347854.4924
        -0.000          -0.000
  11369696.254 8   8712434.66745  23737665.291    23737664.7764   23737673.4304
        -0.000          -0.000
  -5847782.340 9  -4550117.70346  23880797.991    23880797.9374   23880804.8744
        -0.000          -0.000
 -25560401.207 9 -19903573.66848  20909041.071    20909040.6924   20909046.6884
        -0.000          -0.000
 -14721162.282 9 -11463443.75147  22440468.060    22440467.8184   22440474.5454
        -0.000          -0.000
 -10304048.951 9  -8019302.52747  22717857.561    22717857.2154   22717863.6004
        -0.000          -0.000
 -18669898.694 9 -14527117.32548  21542818.071    21542818.1684   21542824.1724
        -0.000          -0.000
 98  6 25  0 36  0.0000000  0  9  3  1 23 17  9 21  8 31 29          0.000000010
 -16463352.270 9 -12816066.13847  21991741.216    21991741.0354   21991747.7764
        -0.000          -0.000
 -24769100.745 9 -19283871.95949  20310545.993    20310545.7124   20310551.5584
        -0.000          -0.000
  -2720217.555 9  -2101379.03947  22356783.383    22356782.9414   22356789.2924
        -0.000          -0.000
  11466584.084 9   8787931.56646  23756102.572    23756101.9824   23756110.7694
        -0.000          -0.000
  -5806165.746 9  -4517689.20146  23888717.286    23888717.1864   23888724.1564
        -0.000          -0.000
 -25558531.394 9 -19902116.67348  20909396.889    20909396.4964   20909402.5074
        -0.000          -0.000
 -14751895.753 9 -11487391.87347  22434619.788    22434619.4664   22434626.1154
        -0.000          -0.000
 -10314760.645 9  -8027649.29847  22715819.140    22715818.8764   22715825.2094
        -0.000          -0.000
 -18738560.972 9 -14580620.34948  21529752.046    21529752.1434   21529758.1204
        -0.000          -0.000
 98  6 25  0 36 30.0000000  0  9  3  1 23 17  9 21  8 31 29          0.000000006
 -16409099.842 9 -12773791.55347  22002065.099    22002064.9774   22002071.6794
        -0.000          -0.000
 -24785533.999 9 -19296677.07049  20307418.879    20307418.5674   20307424.4154
        -0.000          -0.000
  -2673191.419 9  -2064735.30947  22365732.141    22365731.7664   22365738.1084
        -0.000          -0.000
  11563685.898 9   8863595.23345  23774580.542    23774579.9604   23774588.7854
        -0.000          -0.000
  -5764019.736 9  -4484848.14046  23896737.390    23896737.2524   23896744.2464
        -0.000          -0.000
 -25556526.076 9 -19900554.08948  20909778.496    20909778.0924   20909784.1174
        -0.000          -0.000
 -14782128.768 9 -11510950.03547  22428866.607    22428866.2994   22428872.8864
        -0.000          -0.000
 -10324913.058 9  -8035560.26847  22713887.331    22713887.0134   22713893.3044
        -0.000          -0.000
 -18806859.387 9 -14633839.84448  21516755.330    21516755.3904   21516761.3284
        -0.000          -0.000
 98  6 25  0 37  0.0000000  0  9  3  1 23 17  9 21  8 31 29          0.000000005
 -16354423.497 9 -12731186.63747  22012469.796    22012469.6344   22012476.3084
        -0.000          -0.000
 -24801473.350 9 -19309097.32949  20304385.686    20304385.3774   20304391.2174
        -0.000          -0.000
  -2626097.981 9  -2028039.14047  22374693.725    22374693.3124   22374699.7674
        -0.000          -0.000
  11661019.462 8   8939439.46345  23793102.445    23793101.9484   23793110.8704
        -0.000          -0.000
  -5721338.480 9  -4451590.04346  23904859.389    23904859.2904   23904866.2224
        -0.000          -0.000
 -25554386.206 9 -19898886.65948  20910185.698    20910185.3204   20910191.3134
        -0.000          -0.000
 -14811875.016 9 -11534128.89847  22423206.007    22423205.7674   22423212.4074
        -0.000          -0.000
 -10334511.278 9  -8043039.40747  22712060.698    22712060.4784   22712066.8074
        -0.000          -0.000
 -18874799.859 9 -14686780.42748  21503826.646    21503826.7114   21503832.6484
        -0.000          -0.000
 98  6 25  0 37 30.0000000  0  9  3  1 23 17  9 21  8 31 29          0.000000007
 -16299327.133 9 -12688254.45147  22022954.348    22022954.1464   22022960.8554
        -0.000          -0.000
 -24816919.427 9 -19321133.20749  20301446.356    20301446.0514   20301451.8944
        -0.000          -0.000
  -2578938.809 9  -1991291.74247  22383667.779    22383667.3804   22383673.8624
        -0.000          -0.000
  11758587.922 9   9015466.73545  23811669.200    23811668.7154   23811677.4994
        -0.000          -0.000
  -5678126.031 9  -4417917.99946  23913082.650    23913082.4274   23913089.3804
        -0.000          -0.000
 -25552113.663 9 -19897115.84448  20910618.156    20910617.7804   20910623.7654
        -0.000          -0.000
 -14841126.443 9 -11556922.18047  22417639.537    22417639.2924   22417646.1044
        -0.000          -0.000
 -10343567.107 9  -8050095.89447  22710337.503    22710337.2414   22710343.5844
        -0.000          -0.000
 -18942380.872 9 -14739440.90448  21490966.409    21490966.4744   21490972.3754
        -0.000          -0.000
 98  6 25  0 38  0.0000000  0  9  3  1 23 17  9 21  8 31 29          0.000000031
 -16243796.384 9 -12644983.76947  22033521.514    22033521.3414   22033528.0284
        -0.000          -0.000
 -24831871.753 9 -19332784.35949  20298601.023    20298600.7214   20298606.5644
        -0.000          -0.000
  -2531712.634 9  -1954492.14747  22392654.682    22392654.2784   22392660.7164
        -0.000          -0.000
  11856398.005 9   9091682.28545  23830282.032    23830281.5104   23830290.3474
        -0.000          -0.000
  -5634363.567 9  -4383817.40546  23921410.366    23921410.2424   23921417.2394
        -0.000          -0.000
 -25549687.747 9 -19895225.52748  20911079.799    20911079.4014   20911085.4054
        -0.000          -0.000
 -14869868.775 9 -11579318.76547  22412169.870    22412169.6284   22412176.5734
        -0.000          -0.000
 -10352043.891 9  -8056701.18147  22708724.500    22708724.1484   22708730.4574
        -0.000          -0.000
 -19009580.718 9 -14791804.37548  21478178.642    21478178.7064   21478184.5974
        -0.000          -0.000
 98  6 25  0 38 30.0000000  0  9  3  1 23 17  9 21  8 31 29          0.000000051
 -16187854.854 9 -12601393.01647  22044166.832    22044166.6914   22044173.4284
        -0.000          -0.000
 -24846370.497 9 -19344082.06349  20295842.015    20295841.7014   20295847.5454
        -0.000          -0.000
  -2484459.798 9  -1917671.76147  22401646.627    22401646.1834   22401652.6684
        -0.000          -0.000
  11954405.543 9   9168051.72045  23848932.400    23848931.9384   23848940.5914
        -0.000          -0.000
  -5590101.429 9  -4349327.44646  23929833.137    23929833.1014   23929840.0604
        -0.000          -0.000
 -25547140.267 9 -19893240.47748  20911564.555    20911564.1554   20911570.1964
        -0.000          -0.000
 -14898131.569 9 -11601341.68147  22406791.635    22406791.3514   22406798.3014
        -0.000          -0.000
 -10359977.121 9  -8062882.91647  22707214.739    22707214.4434   22707220.7834
        -0.000          -0.000
 -19076434.584 9 -14843898.24748  21465456.702    21465456.8044   21465462.7354
        -0.000          -0.000
 98  6 25  0 39  0.0000000  0  9  3  1 23 17  9 21  8 31 29          0.000000060
 -16131494.181 9 -12557475.65247  22054891.937    22054891.7864   22054898.5104
        -0.000          -0.000
 -24860387.843 9 -19355004.65749  20293174.549    20293174.2484   20293180.1054
        -0.000          -0.000
  -2437139.360 9  -1880798.71047  22410651.361    22410650.9394   22410657.4124
        -0.000          -0.000
  12052634.578 9   9244593.70545  23867624.703    23867624.1684   23867633.0404
        -0.000          -0.000
  -5545348.881 9  -4314455.34346  23938349.203    23938349.1954   23938356.0294
        -0.000          -0.000
 -25544455.345 9 -19891148.33148  20912075.467    20912075.0724   20912081.1124
        -0.000          -0.000
 -14925868.705 9 -11622955.00547  22401513.458    22401513.2054   22401520.1494
        -0.000          -0.000
 -10367371.729 9  -8068644.95147  22705807.622    22705807.2674   22705813.7004
        -0.000          -0.000
 -19142925.098 9 -14895708.99948  21452803.926    21452804.0234   21452809.9834
        -0.000          -0.000
 98  6 25  0 39 30.0000000  0 10  3  1 23 17 25  9 21  8 31 29       0.000000061
 -16074712.253 9 -12513230.03447  22065697.252    22065697.0464   22065703.7894
        -0.000          -0.000
 -24873918.683 9 -19365548.14949  20290599.695    20290599.3804   20290605.2454
        -0.000          -0.000
  -2389752.671 9  -1843874.02247  22419668.822    22419668.4164   22419674.7864
        -0.000          -0.000
  12151077.742 9   9321302.52845  23886357.920    23886357.4084   23886366.2884
        -0.000          -0.000
   -667800.000 8   -503954.56352         0.000           0.0004          0.0005
        -0.000          -0.000
  -5500112.331 8  -4279206.09946  23946957.583    23946957.5074   23946964.1274
        -0.000          -0.000
 -25541633.068 9 -19888949.15048  20912612.505    20912612.1304   20912618.1644
        -0.000          -0.000
 -14953067.427 9 -11644148.77547  22396337.808    22396337.5384   22396344.3524
        -0.000          -0.000
 -10374212.059 9  -8073975.07547  22704506.043    22704505.6084   22704512.1094
        -0.000          -0.000
 -19209044.245 9 -14947230.36048  21440221.778    21440221.9334   21440227.8934
        -0.000          -0.000
 98  6 25  0 40  0.0000000  0 10  3  1 23 17 25  9 21  8 31 29       0.000000116
 -16017488.959 9 -12468640.49447  22076586.468    22076586.3174   22076593.0514
        -0.000          -0.000
 -24886949.284 9 -19375701.84749  20288120.058    20288119.7474   20288125.6074
        -0.000          -0.000
  -2342273.323 9  -1806877.12947  22428703.923    22428703.4824   22428709.8124
        -0.000          -0.000
  12249750.981 8   9398190.70745  23905135.050    23905134.5004   23905143.1414
        -0.000          -0.000
   -764521.74219   -579321.85945         0.000           0.0005   24716385.2614
        -0.000          -0.000
  -5454372.404 9  -4243564.60646  23955661.471    23955661.4104   23955668.1164
        -0.000          -0.000
 -25538657.769 9 -19886630.73448  20913178.700    20913178.3084   20913184.3454
        -0.000          -0.000
 -14979716.075 9 -11664913.91947  22391266.823    22391266.5094   22391273.1444
        -0.000          -0.000
 -10380480.802 9  -8078859.81147  22703313.077    22703312.7244   22703319.2054
        -0.000          -0.000
 -19274786.964 9 -14998458.41048  21427711.351    21427711.4744   21427717.4454
        -0.000          -0.000
 98  6 25  0 40 30.0000000  0 10  3  1 23 17 25  9 21  8 31 29       0.000000105
 -15959850.972 9 -12423727.81947  22087554.619    22087554.4844   22087561.2684
        -0.000          -0.000
 -24899502.446 9 -19385483.51649  20285731.233    20285730.9114   20285736.7724
        -0.000          -0.000
  -2294710.038 9  -1769814.83347  22437754.898    22437754.4964   22437760.8184
        -0.000          -0.000
  12348639.591 8   9475246.64145  23923953.039    23923952.4724   23923961.0094
        -0.000          -0.000
   -861350.496 8   -654772.68945  24697948.916    24697948.0664   24697957.7894
        -0.000          -0.000
  -5408157.399 9  -4207552.90046  23964455.902    23964455.8724   23964462.6094
        -0.000          -0.000
 -25535551.275 9 -19884210.08548  20913769.849    20913769.4494   20913775.4854
        -0.000          -0.000
 -15005827.886 9 -11685260.76047  22386297.798    22386297.5494   22386304.0244
        -0.000          -0.000
 -10386221.021 9  -8083332.71447  22702220.817    22702220.4404   22702226.8714
        -0.000          -0.000
 -19340175.481 9 -15049410.45648  21415268.313    21415268.4184   21415274.3554
        -0.000          -0.000
 98  6 25  0 41  0.0000000  0 10  3  1 23 17 25  9 21  8 31 29       0.000000081
 -15901795.362 9 -12378489.72947  22098602.264    22098602.1064   22098608.9144
        -0.000          -0.000
 -24911575.523 9 -19394891.09549  20283433.766    20283433.4614   20283439.3044
        -0.000          -0.000
  -2247076.485 9  -1732697.78547  22446819.219    22446818.8714   22446825.1654
        -0.000          -0.000
  12447753.635 9   9552478.26845  23942813.814    23942813.3154   23942821.9304
        -0.000          -0.000
   -958295.145 8   -730313.73345  24679500.174    24679500.0084   24679510.3064
        -0.000          -0.000
  -5361453.913 9  -4171160.60046  23973343.209    23973343.2194   23973350.0714
        -0.000          -0.000
 -25532301.109 9 -19881677.48848  20914388.326    20914387.9404   20914393.9784
        -0.000          -0.000
 -15031399.683 9 -11705186.79947  22381431.631    22381431.3274   22381437.7824
        -0.000          -0.000
 -10391412.273 9  -8087377.85047  22701233.144    22701232.6344   22701239.0624
        -0.000          -0.000
 -19405197.611 9 -15100077.00848  21402894.971    21402895.1044   21402901.0124
        -0.000          -0.000
 98  6 25  0 41 30.0000000  0 10  3  1 23 17 25  9 21  8 31 29       0.000000067
 -15843298.359 9 -12332907.68847  22109733.912    22109733.7604   22109740.5914
        -0.000          -0.000
 -24923151.464 9 -19403911.29549  20281230.935    20281230.6264   20281236.4784
        -0.000          -0.000
  -2199373.637 9  -1695526.73647  22455896.748    22455896.4264   22455902.7414
        -0.000          -0.000
  12547102.042 8   9629892.49845  23961719.360    23961718.7184   23961727.5004
        -0.000          -0.000
  -1055329.299 8   -805924.49045  24661034.822    24661034.3614   24661045.2634
        -0.000          -0.000
  -5314227.786 8  -4134361.03946  23982330.073    23982329.9494   23982336.9434
        -0.000          -0.000
 -25528883.155 9 -19879014.14248  20915038.725    20915038.3504   20915044.3904
        -0.000          -0.000
 -15056428.519 9 -11724689.76047  22376668.833    22376668.5354   22376675.0354
        -0.000          -0.000
 -10396027.225 9  -8090973.91047  22700354.738    22700354.3624   22700360.8074
        -0.000          -0.000
 -19469825.787 9 -15150436.58048  21390596.609    21390596.7484   21390602.6134
        -0.000          -0.000
 98  6 25  0 42  0.0000000  0 10  3  1 23 17 25  9 21  8 31 29       0.000000036
 -15784398.694 9 -12287011.88647  22120942.223    22120942.0304   22120948.9104
        -0.000          -0.000
 -24934246.303 9 -19412556.60849  20279119.634    20279119.3484   20279125.1744
        -0.000          -0.000
  -2151627.469 9  -1658321.93447  22464982.523    22464982.1574   22464988.5414
        -0.000          -0.000
  12646656.077 8   9707466.94645  23980663.701    23980663.1834   23980671.9844
        -0.000          -0.000
  -1152469.867 8   -881618.22045  24642549.520    24642549.0584   24642559.9884
        -0.000          -0.000
  -5266505.401 9  -4097174.76346  23991411.243    23991411.1624   23991418.2894
        -0.000          -0.000
 -25525312.997 9 -19876232.19648  20915718.081    20915717.7104   20915723.7584
        -0.000          -0.000
 -15080948.769 9 -11743796.40547  22372002.690    22372002.3954   22372009.0014
        -0.000          -0.000
 -10400118.152 9  -8094161.65447  22699576.261    22699575.8814   22699582.3024
        -0.000          -0.000
 -19534091.413 9 -15200513.64948  21378367.271    21378367.3944   21378373.2284
        -0.000          -0.000
 98  6 25  0 42 30.0000000  0 10  3  1 23 17 25  9 21  8 31 29       0.000000013
 -15725047.656 9 -12240764.37847  22132236.333    22132236.1714   22132243.0644
        -0.000          -0.000
 -24944799.330 9 -19420779.73449  20277111.484    20277111.1684   20277117.0104
        -0.000          -0.000
  -2103791.529 9  -1621047.18247  22474085.356    22474085.0044   22474091.4534
        -0.000          -0.000
  12746473.820 8   9785246.90545  23999658.445    23999658.0334   23999666.9034
        -0.000          -0.000
  -1249668.359 8   -957357.11245  24624053.207    24624052.9634   24624063.4514
        -0.000          -0.000
  -5218232.582 8  -4059559.61846  24000597.261    24000597.0324   24000604.3764
        -0.000          -0.000
 -25521532.098 9 -19873286.03848  20916437.567    20916437.2124   20916443.2824
        -0.000          -0.000
 -15104920.900 9 -11762475.95047  22367440.922    22367440.6434   22367447.2944
        -0.000          -0.000
 -10403642.993 9  -8096908.30347  22698905.500    22698905.1054   22698911.4774
        -0.000          -0.000
 -19597922.152 9 -15250251.84948  21366220.698    21366220.8134   21366226.6214
        -0.000          -0.000
 98  6 25  0 43  0.0000000  0 10  3  1 23 17 25  9 21  8 31 29      -0.000000002
 -15665253.607 9 -12194171.65347  22143614.852    22143614.6254   22143621.5404
        -0.000          -0.000
 -24954800.500 9 -19428572.83949  20275208.266    20275207.9664   20275213.8064
        -0.000          -0.000
  -2055871.416 9  -1583706.83947  22483204.303    22483203.9424   22483210.3324
        -0.000          -0.000
  12846540.883 8   9863221.10445  24018700.579    24018700.0504   24018709.1844
        -0.000          -0.000
  -1346911.212 8  -1033130.53545  24605548.514    24605548.3634   24605558.7214
        -0.000          -0.000
  -5169412.803 9  -4021518.23545  24009887.286    24009887.1214   24009894.4594
        -0.000          -0.000
 -25517543.051 9 -19870177.68548  20917196.667    20917196.2764   20917202.3394
        -0.000          -0.000
 -15128366.993 9 -11780745.60547  22362979.338    22362979.0224   22362985.5814
        -0.000          -0.000
 -10406601.848 9  -8099213.90247  22698342.432    22698342.1154   22698348.4354
        -0.000          -0.000
 -19661323.957 9 -15299655.81248  21354155.734    21354155.8364   21354161.5984
        -0.000          -0.000
 98  6 25  0 43 30.0000000  0 10  3  1 23 17 25  9 21  8 31 29      -0.000000012
 -15605040.971 9 -12147252.77347  22155072.945    22155072.7724   22155079.6814
        -0.000          -0.000
 -24964254.886 9 -19435939.87649  20273409.162    20273408.8614   20273414.7014
        -0.000          -0.000
  -2007840.540 9  -1546280.20147  22492344.322    22492343.9344   22492350.3184
        -0.000          -0.000
  12946839.211 8   9941375.59145  24037787.013    24037786.4074   24037795.2774
        -0.000          -0.000
  -1444173.019 9  -1108918.74045  24587040.190    24587040.0974   24587050.3024
        -0.000          -0.000
  -5120058.054 9  -3983060.03046  24019279.323    24019279.2184   24019286.1444
        -0.000          -0.000
 -25513351.717 9 -19866911.70348  20917994.283    20917993.8844   20917999.9284
        -0.000          -0.000
 -15151291.475 9 -11798608.80247  22358617.192    22358616.7714   22358623.1084
        -0.000          -0.000
 -10409001.411 9  -8101083.70347  22697885.872    22697885.5114   22697891.7974
        -0.000          -0.000
 -19724307.638 9 -15348733.96648  21342170.255    21342170.3634   21342176.1204
        -0.000          -0.000
 98  6 25  0 44  0.0000000  0 10  3  1 23 17 25  9 21  8 31 29      -0.000000010
 -15544424.660 9 -12100019.33047  22166607.818    22166607.6774   22166614.6224
        -0.000          -0.000
 -24973182.921 9 -19442896.77649  20271710.220    20271709.9274   20271715.7314
        -0.000          -0.000
  -1959692.890 9  -1508762.55947  22501506.563    22501506.1514   22501512.5234
        -0.000          -0.000
  13047360.138 8  10019703.40045  24056915.560    24056914.9054   24056924.2274
        -0.000          -0.000
  -1541464.974 9  -1184730.39745  24568525.968    24568525.8144   24568536.3404
        -0.000          -0.000
  -5070175.719 9  -3944190.71346  24028771.924    24028771.5784   24028778.4684
        -0.000          -0.000
 -25508972.209 9 -19863499.09548  20918827.678    20918827.2674   20918833.3024
        -0.000          -0.000
 -15173681.974 9 -11816055.92147  22354356.360    22354355.9814   22354362.3004
        -0.000          -0.000
 -10410828.950 9  -8102507.75547  22697538.219    22697537.6924   22697544.0394
        -0.000          -0.000
 -19786879.698 9 -15397491.37548  21330263.123    21330263.2564   21330269.0244
        -0.000          -0.000
 98  6 25  0 44 30.0000000  0 10  3  1 23 17 25  9 21  8 31 29       0.000000014
 -15483399.874 9 -12052467.59347  22178220.524    22178220.3674   22178227.3294
        -0.000          -0.000
 -24981595.068 9 -19449451.68349  20270109.435    20270109.1454   20270114.9494
        -0.000          -0.000
  -1911424.834 9  -1471151.10647  22510691.678    22510691.2734   22510697.6654
        -0.000          -0.000
  13148118.931 8  10098216.64045  24076089.352    24076088.8404   24076098.0704
        -0.000          -0.000
  -1638791.650 8  -1260569.20845  24550005.253    24550005.0264   24550015.5184
        -0.000          -0.000
  -5019771.926 9  -3904915.02946  24038363.327    24038363.1974   24038370.0354
        -0.000          -0.000
 -25504399.451 9 -19859935.90248  20919697.850    20919697.4354   20919703.4754
        -0.000          -0.000
 -15195514.708 9 -11833068.41447  22350201.732    22350201.3284   22350207.5644
        -0.000          -0.000
 -10412044.751 9  -8103455.15247  22697306.760    22697306.3224   22697312.7254
        -0.000          -0.000
 -19849028.324 9 -15445918.83648  21318436.626    21318436.7234   21318442.4914
        -0.000          -0.000
 98  6 25  0 45  0.0000000  0 10  3  1 23 17 25  9 21  8 31 29       0.000000040
 -15422011.495 9 -12004632.54247  22189902.399    22189902.2404   22189909.1544
        -0.000          -0.000
 -24989532.450 9 -19455636.64149  20268599.006    20268598.6914   20268604.5044
        -0.000          -0.000
  -1863073.505 9  -1433474.75147  22519892.600    22519892.2034   22519898.6204
        -0.000          -0.000
  13249060.966 9  10176872.65745  24095298.112    24095297.5634   24095306.8024
        -0.000          -0.000
  -1736189.120 8  -1336463.05345  24531470.824    24531470.6964   24531481.0004
        -0.000          -0.000
  -4968897.005 9  -3865272.22846  24048044.596    24048044.4264   24048051.2954
        -0.000          -0.000
 -25499675.278 9 -19856254.72048  20920596.810    20920596.4324   20920602.4554
        -0.000          -0.000
 -15216793.715 9 -11849649.42247  22346152.335    22346151.9414   22346158.2094
        -0.000          -0.000
 -10412665.482 9  -8103938.85247  22697188.658    22697188.2044   22697194.5534
        -0.000          -0.000
 -19910801.181 9 -15494053.48248  21306681.594    21306681.7014   21306687.4804
        -0.000          -0.000
 98  6 25  0 45 30.0000000  0 10  3  1 23 17 25  9 21  8 31 29       0.000000054
 -15360283.851 9 -11956533.13047  22201648.820    22201648.6494   22201655.5674
        -0.000          -0.000
 -24997041.203 9 -19461487.60449  20267170.112    20267169.8104   20267175.6184
        -0.000          -0.000
  -1814661.083 9  -1395750.78947  22529105.144    22529104.7654   22529111.1654
        -0.000          -0.000
  13350171.007 8  10255659.62345  24114538.727    24114538.1534   24114547.4194
        -0.000          -0.000
  -1833700.304 9  -1412445.62445  24512914.943    24512914.9924   24512925.1414
        -0.000          -0.000
  -4917572.923 9  -3825279.47746  24057811.267    24057811.0544   24057818.1794
        -0.000          -0.000
 -25494821.652 9 -19852472.66648  20921520.433    20921520.0534   20921526.0654
        -0.000          -0.000
 -15237510.295 9 -11865792.17447  22342210.039    22342209.6804   22342215.9124
        -0.000          -0.000
 -10412719.167 9  -8103980.69147  22697178.299    22697177.9014   22697184.3124
        -0.000          -0.000
 -19972218.330 9 -15541910.96148  21294994.224    21294994.3524   21295000.1414
        -0.000          -0.000
 98  6 25  0 46  0.0000000  0 10  3  1 23 17 25  9 21  8 31 29       0.000000054
 -15298192.430 9 -11908150.25147  22213464.419    22213464.2494   22213471.2634
        -0.000          -0.000
 -25004113.786 9 -19466998.69449  20265824.301    20265823.9824   20265829.7504
        -0.000          -0.000
  -1766202.600 9  -1357990.94747  22538326.512    22538326.1314   22538332.5544
        -0.000          -0.000
  13451461.751 8  10334587.29645  24133813.458    24133813.2184   24133822.5614
        -0.000          -0.000
  -1931341.666 9  -1488529.63945  24494334.447    24494334.2764   24494344.3134
        -0.000          -0.000
  -4865792.089 8  -3784930.82245  24067664.857    24067664.6234   24067671.6774
        -0.000          -0.000
 -25489836.282 9 -19848587.95348  20922469.107    20922468.7264   20922474.7324
        -0.000          -0.000
 -15257654.670 9 -11881489.06247  22338376.458    22338376.2144   22338382.5474
        -0.000          -0.000
 -10412211.446 9  -8103585.08147  22697274.938    22697274.5144   22697280.9614
        -0.000          -0.000
 -20033270.179 9 -15589483.78848  21283376.384    21283376.5254   21283382.3124
        -0.000          -0.000
 98  6 25  0 46 30.0000000  0 10  3  1 23 17 25  9 21  8 31 29       0.000000030
 -15235736.391 9 -11859483.25747  22225349.449    22225349.2904   22225356.2974
        -0.000          -0.000
 -25010744.552 9 -19472165.51049  20264562.481    20264562.1464   20264567.9434
        -0.000          -0.000
  -1717707.531 9  -1320202.58347  22547554.866    22547554.4734   22547560.8434
        -0.000          -0.000
  13552920.284 8  10413645.79945  24153120.704    24153120.3734   24153129.5634
        -0.000          -0.000
  -2029108.529 9  -1564711.38145  24475729.884    24475729.7154   24475739.7484
        -0.000          -0.000
  -4813558.912 9  -3744229.69745  24077604.469    24077604.3204   24077611.4264
        -0.000          -0.000
 -25484725.663 9 -19844605.64448  20923441.625    20923441.2334   20923447.2404
        -0.000          -0.000
 -15277244.595 9 -11896753.90647  22334648.678    22334648.3954   22334654.7504
        -0.000          -0.000
 -10411170.583 9  -8102774.02347  22697473.089    22697472.6374   22697479.1264
        -0.000          -0.000
 -20093974.763 9 -15636786.02148  21271824.709    21271824.8124   21271830.5794
        -0.000          -0.000
 98  6 25  0 47  0.0000000  0 10  3  1 23 17 25  9 21  8 31 29       0.000000009
 -15172872.801 9 -11810498.68947  22237312.104    22237311.9194   22237318.9654
        -0.000          -0.000
 -25016894.290 9 -19476957.50149  20263392.227    20263391.8964   20263397.6664
        -0.000          -0.000
  -1669131.950 9  -1282351.49947  22556798.446    22556798.0744   22556804.4004
        -0.000          -0.000
  13654564.335 9  10492848.81645  24172462.936    24172462.5424   24172471.8744
        -0.000          -0.000
  -2126940.092 9  -1640943.58545  24457112.741    24457112.6334   24457122.8394
        -0.000          -0.000
  -4760820.813 9  -3703135.09945  24087640.282    24087640.0844   24087646.9014
        -0.000          -0.000
 -25479470.527 9 -19840510.72448  20924441.678    20924441.2614   20924447.2764
        -0.000          -0.000
 -15296258.904 9 -11911570.22047  22331030.396    22331030.0894   22331036.4554
        -0.000          -0.000
 -10409588.754 9  -8101541.44047  22697774.204    22697773.7084   22697780.1904
        -0.000          -0.000
 -20154308.391 9 -15683799.20648  21260343.609    21260343.6704   21260349.4304
        -0.000          -0.000
 98  6 25  0 47 30.0000000  0 10  3  1 23 17 25  9 21  8 31 29      -0.000000017
 -15109625.403 9 -11761215.05347  22249347.792    22249347.5574   22249354.5844
        -0.000          -0.000
 -25022583.069 9 -19481390.30449  20262309.685    20262309.3354   20262315.1204
        -0.000          -0.000
  -1620504.492 9  -1244459.97647  22566052.040    22566051.5974   22566057.8794
        -0.000          -0.000
  13756387.393 8  10572191.34445  24191839.603    24191839.0984   24191848.2574
        -0.000          -0.000
  -2224842.963 8  -1717231.30845  24438482.329    24438482.2914   24438492.5754
        -0.000          -0.000
  -4707584.944 8  -3661652.59845  24097770.890    24097770.6514   24097777.4924
        -0.000          -0.000
 -25474094.317 9 -19836321.45948  20925464.742    20925464.3224   20925470.3524
        -0.000          -0.000
 -15314738.401 9 -11925969.80847  22327513.947    22327513.5744   22327519.8344
        -0.000          -0.000
 -10407495.534 9  -8099910.36847  22698172.606    22698172.0424   22698178.5234
        -0.000          -0.000
 -20214298.271 9 -15730544.52148  21248927.903    21248927.9534   21248933.7484
        -0.000          -0.000
 98  6 25  0 48  0.0000000  0 10  3  1 23 17 25  9 21  8 31 29      -0.000000026
 -15045965.590 9 -11711610.04147  22261461.887    22261461.6414   22261468.7174
        -0.000          -0.000
 -25027753.220 9 -19485418.97949  20261325.847    20261325.4964   20261331.2824
        -0.000          -0.000
  -1571798.585 9  -1206507.32747  22575320.477    22575320.0114   22575326.3224
        -0.000          -0.000
  13858412.059 8  10651690.94945  24211254.350    24211253.9284   24211263.0704
        -0.000          -0.000
  -2322759.242 9  -1793529.48745  24419849.239    24419849.1904   24419859.5234
        -0.000          -0.000
  -4653821.976 9  -3619759.43645  24108001.587    24108001.5574   24108008.1444
        -0.000          -0.000
 -25468579.807 9 -19832024.42948  20926514.128    20926513.7064   20926519.7194
        -0.000          -0.000
 -15332672.227 9 -11939944.18647  22324101.223    22324100.8674   22324107.0884
        -0.000          -0.000
 -10404849.260 9  -8097848.34447  22698676.167    22698675.6344   22698682.0664
        -0.000          -0.000
 -20273907.788 9 -15776993.44248  21237584.523    21237584.5964   21237590.4174
        -0.000          -0.000
 98  6 25  0 48 30.0000000  0 10  3  1 23 17 25  9 21  8 31 29      -0.000000029
 -14981934.564 9 -11661715.78447  22273646.632    22273646.4064   22273653.4804
        -0.000          -0.000
 -25032422.369 9 -19489057.26049  20260437.370    20260437.0014   20260442.7694
        -0.000          -0.000
  -1523023.423 9  -1168500.72147  22584602.122    22584601.6454   22584607.9924
        -0.000          -0.000
  13960617.964 8  10731331.76945  24230703.514    24230703.0944   24230712.4094
        -0.000          -0.000
  -2420694.746 9  -1869842.69745  24401212.639    24401212.5524   24401222.4964
        -0.000          -0.000
  -4599557.300 8  -3577475.29145  24118328.034    24118327.8004   24118334.5354
        -0.000          -0.000
 -25462944.332 9 -19827633.14148  20927586.523    20927586.0644   20927592.0844
        -0.000          -0.000
 -15350085.348 9 -11953512.82647  22320787.595    22320787.2404   22320793.4514
        -0.000          -0.000
 -10401662.183 9  -8095364.91847  22699282.586    22699282.1144   22699288.5944
        -0.000          -0.000
 -20333153.124 9 -15823158.58848  21226310.494    21226310.5714   21226316.3644
        -0.000          -0.000
 98  6 25  0 49  0.0000000  0 10  3  1 23 17 25  9 21  8 31 29      -0.000000023
 -14917518.814 9 -11611521.73647  22285904.509    22285904.3094   22285911.4024
        -0.000          -0.000
 -25036560.861 9 -19492282.04349  20259649.821    20259649.4564   20259655.2044
        -0.000          -0.000
  -1474154.364 9  -1130420.95247  22593901.617    22593901.1284   22593907.4644
        -0.000          -0.000
  14063053.545 8  10811151.59745  24250196.497    24250195.9684   24250205.3264
        -0.000          -0.000
  -2518630.476 9  -1946156.04645  24382575.857    24382575.8344   24382585.6234
        -0.000          -0.000
  -4544787.754 8  -3534797.75545  24128750.233    24128749.9654   24128756.6064
        -0.000          -0.000
 -25457145.343 9 -19823114.43848  20928690.015    20928689.5804   20928695.5814
        -0.000          -0.000
 -15366949.157 9 -11966653.42347  22317578.487    22317578.1424   22317584.3924
        -0.000          -0.000
 -10397911.727 9  -8092442.49947  22699996.408    22699995.8604   22700002.2564
        -0.000          -0.000
 -20391995.532 9 -15869009.76248  21215113.124    21215113.2034   21215118.9514
        -0.000          -0.000
 98  6 25  0 49 30.0000000  0 10  3  1 23 17 25  9 21  8 31 29      -0.000000022
 -14852725.473 9 -11561033.47347  22298234.385    22298234.1244   22298241.2634
        -0.000          -0.000
 -25040159.054 9 -19495085.82049  20258965.065    20258964.7214   20258970.4854
        -0.000          -0.000
  -1425193.005 9  -1092269.25547  22603218.802    22603218.2684   22603224.5684
        -0.000          -0.000
  14165726.566 8  10891156.40545  24269734.630    24269734.0134   24269743.6284
        -0.000          -0.000
  -2616578.038 8  -2022478.70445  24363936.973    24363936.8684   24363946.6124
        -0.000          -0.000
  -4489539.189 8  -3491746.97045  24139263.504    24139263.0964   24139270.2654
        -0.000          -0.000
 -25451169.856 9 -19818458.20848  20929827.108    20929826.6734   20929832.6914
        -0.000          -0.000
 -15383251.214 9 -11979356.29547  22314476.308    22314475.9504   22314482.2604
        -0.000          -0.000
 -10393594.666 9  -8089078.57047  22700817.951    22700817.4014   22700823.7804
        -0.000          -0.000
 -20450416.632 9 -15914532.65448  21203995.923    21203995.9794   21204001.7314
        -0.000          -0.000
 98  6 25  0 50  0.0000000  0 10  3  1 23 17 25  9 21  8 31 29      -0.000000029
 -14787546.897 9 -11510245.00647  22310637.479    22310637.2074   22310644.3044
        -0.000          -0.000
 -25043213.367 9 -19497465.78849  20258383.823    20258383.4734   20258389.2384
        -0.000          -0.000
  -1376127.210 9  -1054036.19647  22612555.766    22612555.2444   22612561.4994
        -0.000          -0.000
  14268632.485 8  10971342.71445  24289316.963    24289316.3164   24289325.6884
        -0.000          -0.000
  -2714536.194 8  -2098809.48345  24345296.036    24345296.0124   24345305.5804
        -0.000          -0.000
  -4433824.906 8  -3448333.25545  24149865.795    24149865.4164   24149872.2704
        -0.000          -0.000
 -25445000.889 9 -19813651.21048  20931001.025    20931000.5904   20931006.6234
        -0.000          -0.000
 -15398979.887 9 -11991612.38447  22311483.203    22311482.8024   22311489.1694
        -0.000          -0.000
 -10388704.675 9  -8085268.20147  22701748.512    22701747.9374   22701754.3554
        -0.000          -0.000
 -20508400.555 9 -15959714.88648  21192961.921    21192961.9784   21192967.7414
        -0.000          -0.000
 98  6 25  0 50 30.0000000  0 10  3  1 23 17 25  9 21  8 31 29      -0.000000036
 -14721962.195 9 -11459140.08247  22323117.845    22323117.5874   22323124.6604
        -0.000          -0.000
 -25045720.036 9 -19499419.01949  20257906.809    20257906.4734   20257912.2314
        -0.000          -0.000
  -1326935.860 9  -1015705.27247  22621916.506    22621916.0044   22621922.2874
        -0.000          -0.000
  14371796.496 8  11051730.12245  24308948.738    24308948.0254   24308957.2744
        -0.000          -0.000
  -2812487.938 8  -2175135.33445  24326656.180    24326656.2174   24326665.7624
        -0.000          -0.000
  -4377628.389 9  -3404543.73145  24160559.615    24160559.3924   24160565.8864
        -0.000          -0.000
 -25438595.208 9 -19808659.76148  20932219.996    20932219.5564   20932225.5604
        -0.000          -0.000
 -15414100.430 9 -12003394.59247  22308605.937    22308605.5244   22308611.7974
        -0.000          -0.000
 -10383238.241 9  -8081008.64747  22702788.732    22702788.1964   22702794.6534
        -0.000          -0.000
 -20565935.591 9 -16004547.33348  21182013.340    21182013.4074   21182019.1434
        -0.000          -0.000
 98  6 25  0 51  0.0000000  0 10  3  1 23 17 25  9 21  8 31 29      -0.000000038
 -14655963.804 9 -11407712.80447  22335676.980    22335676.7534   22335683.7734
        -0.000          -0.000
 -25047683.214 9 -19500948.75549  20257533.241    20257532.8824   20257538.6414
        -0.000          -0.000
  -1277624.704 9   -977281.01047  22631300.056    22631299.5384   22631305.8694
        -0.000          -0.000
  14475212.754 8  11132314.06945  24328628.505    24328627.6724   24328636.9494
        -0.000          -0.000
  -2910426.261 9  -2251450.69645  24308019.057    24308019.1184   24308028.6284
        -0.000          -0.000
  -4320947.100 8  -3360376.57545  24171345.965    24171345.7654   24171352.3864
        -0.000          -0.000
 -25431961.312 9 -19803490.47648  20933482.387    20933481.9324   20933487.9274
        -0.000          -0.000
 -15428597.261 9 -12014690.79947  22305847.215    22305846.8344   22305853.1034
        -0.000          -0.000
 -10377194.705 9  -8076299.42347  22703938.798    22703938.2614   22703944.7234
        -0.000          -0.000
 -20623027.010 9 -16049034.11248  21171149.188    21171149.2284   21171154.9344
        -0.000          -0.000
 98  6 25  0 51 30.0000000  0 10  3  1 23 17 25  9 21  8 31 29      -0.000000037
 -14589599.261 9 -11356000.21047  22348305.753    22348305.5504   22348312.5414
        -0.000          -0.000
 -25049159.491 9 -19502099.08549  20257252.338    20257251.9664   20257257.7194
        -0.000          -0.000
  -1228235.702 9   -938796.09347  22640698.433    22640697.9414   22640704.3014
        -0.000          -0.000
  14578812.349 8  11213040.86745  24348342.832    24348342.1324   24348351.3524
        -0.000          -0.000
  -3008377.473 9  -2327776.15345  24289379.599    24289379.5624   24289388.9654
        -0.000          -0.000
  -4263788.509 8  -3315837.46045  24182222.871    24182222.7064   24182229.3224
        -0.000          -0.000
 -25425149.966 9 -19798182.92648  20934778.519    20934778.0754   20934784.0704
        -0.000          -0.000
 -15442502.421 9 -12025525.96747  22303201.164    22303200.7454   22303207.0554
        -0.000          -0.000
 -10370585.891 9  -8071149.73147  22705196.343    22705195.8404   22705202.3744
        -0.000          -0.000
 -20679713.987 9 -16093205.73548  21160362.006    21160362.0564   21160367.7424
        -0.000          -0.000
 98  6 25  0 52  0.0000000  0 10  3  1 23 17 25  9 21  8 31 29      -0.000000026
 -14522891.298 9 -11304020.03747  22360999.840    22360999.6824   22361006.6664
        -0.000          -0.000
 -25050192.795 9 -19502904.24749  20257055.703    20257055.3224   20257061.0654
        -0.000          -0.000
  -1178794.437 9   -900270.45347  22650106.816    22650106.3384   22650112.7314
        -0.000          -0.000
  14682569.404 8  11293890.38845  24368087.224    24368086.5154   24368095.9354
        -0.000          -0.000
  -3106363.044 9  -2404128.39145  24270733.423    24270733.4814   24270742.4104
        -0.000          -0.000
  -4206136.156 8  -3270913.54345  24193193.583    24193193.3324   24193200.0294
        -0.000          -0.000
 -25418183.907 9 -19792754.82148  20936104.137    20936103.6774   20936109.6954
        -0.000          -0.000
 -15455840.700 9 -12035919.40447  22300662.925    22300662.5424   22300668.8284
        -0.000          -0.000
 -10363425.175 9  -8065569.96547  22706559.018    22706558.5574   22706565.0394
        -0.000          -0.000
 -20736018.802 9 -16137079.57548  21149647.508    21149647.5544   21149653.2264
        -0.000          -0.000
 98  6 25  0 52 30.0000000  0 10  3  1 23 17 25  9 21  8 31 29      -0.000000004
 -14455851.285 9 -11251781.10647  22373757.204    22373757.0204   22373763.9994
        -0.000          -0.000
 -25050790.822 9 -19503370.23349  20256941.879    20256941.5114   20256947.2434
        -0.000          -0.000
  -1129301.748 9   -861704.73347  22659524.968    22659524.4874   22659530.9114
        -0.000          -0.000
  14786481.235 8  11374860.52645  24387861.123    24387860.4864   24387869.8414
        -0.000          -0.000
  -3204387.168 8  -2480510.67945  24252079.983    24252079.8154   24252088.8454
        -0.000          -0.000
  -4147988.618 8  -3225603.80845  24204258.551    24204258.2604   24204265.1954
        -0.000          -0.000
 -25411082.646 9 -19787221.36548  20937455.424    20937454.9824   20937460.9954
        -0.000          -0.000
 -15468623.438 9 -12045879.96047  22298230.487    22298230.0764   22298236.3274
        -0.000          -0.000
 -10355724.662 9  -8059569.57847  22708024.331    22708023.9224   22708030.3624
        -0.000          -0.000
 -20791953.590 9 -16180665.08748  21139003.430    21139003.4824   21139009.1384
        -0.000          -0.000
 98  6 25  0 53  0.0000000  0 10  3  1 23 17 25  9 21  8 31 29       0.000000019
 -14388516.424 9 -11199312.43447  22386570.657    22386570.4394   22386577.4514
        -0.000          -0.000
 -25050985.563 9 -19503521.96849  20256904.834    20256904.4374   20256910.1814
        -0.000          -0.000
  -1079781.556 9   -823117.59947  22668948.391    22668947.9344   22668954.3594
        -0.000          -0.000
  14890513.560 8  11455924.55445  24407657.886    24407657.2014   24407666.7734
        -0.000          -0.000
  -3302488.883 9  -2556953.33545  24233411.608    24233411.4094   24233420.7794
        -0.000          -0.000
  -4089362.885 9  -3179921.45445  24215415.024    24215414.7374   24215421.4124
        -0.000          -0.000
 -25403880.918 9 -19781609.61548  20938825.838    20938825.3934   20938831.4014
        -0.000          -0.000
 -15480887.651 9 -12055436.47447  22295896.654    22295896.2324   22295902.4674
        -0.000          -0.000
 -10347494.598 9  -8053156.58047  22709590.467    22709590.0384   22709596.4794
        -0.000          -0.000
 -20847535.776 9 -16223975.83848  21128426.464    21128426.5154   21128432.1614
        -0.000          -0.000
 98  6 25  0 53 30.0000000  0 10  3  1 23 17 25  9 21  8 31 29       0.000000049
 -14320865.574 9 -11146597.53147  22399444.200    22399443.9974   22399451.0064
        -0.000          -0.000
 -25050757.290 9 -19503344.08149  20256948.276    20256947.8874   20256953.6274
        -0.000          -0.000
  -1030212.975 9   -784492.74547  22678381.032    22678380.5144   22678386.9884
        -0.000          -0.000
  14994687.136 8  11537098.63945  24427481.613    24427480.8654   24427490.4634
        -0.000          -0.000
  -3400667.560 9  -2633456.07246  24214728.748    24214728.6124   24214737.7494
        -0.000          -0.000
  -4030234.451 8  -3133847.38645  24226666.855    24226666.4484   24226673.1134
        -0.000          -0.000
 -25396552.977 9 -19775899.52648  20940220.259    20940219.8284   20940225.8524
        -0.000          -0.000
 -15492619.101 9 -12064577.83647  22293664.179    22293663.7584   22293670.0254
        -0.000          -0.000
 -10338733.533 9  -8046329.80547  22711257.565    22711257.2134   22711263.6794
        -0.000          -0.000
 -20902736.582 9 -16266989.41348  21117922.074    21117922.1274   21117927.7554
        -0.000          -0.000
 98  6 25  0 54  0.0000000  0 10  3  1 23 17 25  9 21  8 31 29       0.000000069
 -14252881.016 9 -11093622.59047  22412381.324    22412381.0514   22412388.0554
        -0.000          -0.000
 -25050089.106 9 -19502823.40849  20257075.404    20257075.0094   20257080.7604
        -0.000          -0.000
   -980586.672 9   -745822.93647  22687824.607    22687824.1264   22687830.5674
        -0.000          -0.000
  15099023.191 8  11618399.32945  24447336.281    24447335.6714   24447345.1774
        -0.000          -0.000
  -3498930.447 9  -2710024.36046  24196029.985    24196029.8174   24196038.8954
        -0.000          -0.000
  -3970623.547 8  -3087397.39145  24238010.194    24238009.9244   24238016.7104
        -0.000          -0.000
 -25389093.043 9 -19770086.58348  20941639.841    20941639.4254   20941645.4064
        -0.000          -0.000
 -15503816.425 9 -12073302.99947  22291533.359    22291532.9334   22291539.1394
        -0.000          -0.000
 -10329468.758 9  -8039110.52647  22713020.650    22713020.2134   22713026.7014
        -0.000          -0.000
 -20957559.449 9 -16309708.49248  21107489.577    21107489.6294   21107495.2494
        -0.000          -0.000
 98  6 25  0 54 30.0000000  0 10  3  1 23 17 25  9 21  8 31 29       0.000000072
 -14184554.309 9 -11040381.05147  22425383.441    22425383.1604   22425390.1904
        -0.000          -0.000
 -25048955.034 9 -19501939.70549  20257291.176    20257290.7994   20257296.5504
        -0.000          -0.000
   -930883.909 9   -707093.52947  22697282.752    22697282.2884   22697288.6924
        -0.000          -0.000
  15203535.657 8  11699837.42245  24467224.333    24467223.6844   24467233.6924
        -0.000          -0.000
  -3597264.583 9  -2786648.18846  24177317.410    24177317.3014   24177326.3864
        -0.000          -0.000
  -3910557.426 9  -3040592.62645  24249440.515    24249440.2024   24249446.8074
        -0.000          -0.000
 -25381484.979 9 -19764158.21148  20943087.601    20943087.1724   20943093.1584
        -0.000          -0.000
 -15514468.170 9 -12081603.04147  22289506.387    22289506.0264   22289512.1304
        -0.000          -0.000
 -10319692.830 9  -8031492.94247  22714881.001    22714880.5954   22714887.0224
        -0.000          -0.000
 -21012003.878 9 -16352132.68848  21097129.131    21097129.1924   21097134.7854
        -0.000          -0.000
 98  6 25  0 55  0.0000000  0 10  3  1 23 17 25  9 21  8 31 29       0.000000075
 -14115852.794 9 -10986847.45347  22438456.903    22438456.6104   22438463.7554
        -0.000          -0.000
 -25047330.174 9 -19500673.56949  20257600.350    20257600.0054   20257605.7584
        -0.000          -0.000
   -881082.885 9   -668287.55747  22706759.650    22706759.1584   22706765.5164
        -0.000          -0.000
  15308246.660 9  11781430.24745  24487150.358    24487149.6784   24487159.4834
        -0.000          -0.000
  -3695644.220 8  -2863307.49045  24158596.277    24158596.0024   24158604.8664
        -0.000          -0.000
  -3850013.189 9  -2993415.31945  24260961.814    24260961.6754   24260968.0124
        -0.000          -0.000
 -25373692.694 9 -19758086.30148  20944570.432    20944570.0164   20944576.0114
        -0.000          -0.000
 -15524530.562 9 -12089443.86147  22287591.594    22287591.2124   22287597.3504
        -0.000          -0.000
 -10309377.351 9  -8023454.92547  22716843.971    22716843.5664   22716849.9164
        -0.000          -0.000
 -21066035.745 9 -16394235.40748  21086847.197    21086847.2494   21086852.8254
        -0.000          -0.000
 98  6 25  0 55 30.0000000  0 10  3  1 23 17 25  9 21  8 31 29       0.000000074
 -14046769.931 9 -10933016.68547  22451603.033    22451602.7294   22451609.8014
        -0.000          -0.000
 -25045202.442 9 -19499015.58449  20258005.260    20258004.9054   20258010.6414
        -0.000          -0.000
   -831178.188 9   -629400.78547  22716256.158    22716255.7034   22716262.0164
        -0.000          -0.000
  15413164.308 8  11863184.20145  24507115.785    24507115.0084   24507124.6804
        -0.000          -0.000
  -3794051.272 9  -2939988.14345  24139869.732    24139869.6464   24139878.4294
        -0.000          -0.000
  -3789006.353 9  -2945877.56645  24272571.186    24272571.0794   24272577.4224
        -0.000          -0.000
 -25365713.492 9 -19751868.73148  20946088.820    20946088.4154   20946094.3974
        -0.000          -0.000
 -15533992.066 9 -12096816.42847  22285790.946    22285790.6584   22285796.8064
        -0.000          -0.000
 -10298527.509 9  -8015000.52547  22718908.595    22718908.2284   22718914.6324
        -0.000          -0.000
 -21119663.003 9 -16436022.83348  21076642.242    21076642.2744   21076647.8384
        -0.000          -0.000
 98  6 25  0 56  0.0000000  0 10  3  1 23 17 25  9 21  8 31 29       0.000000069
 -13977323.569 9 -10878902.68547  22464818.320    22464817.9704   22464825.0454
        -0.000          -0.000
 -25042587.385 9 -19496977.86449  20258502.877    20258502.5214   20258508.2744
        -0.000          -0.000
   -781167.303 9   -590431.28447  22725772.955    22725772.4654   22725778.7694
        -0.000          -0.000
  15518283.609 8  11945095.18145  24527119.241    24527118.5194   24527128.4374
        -0.000          -0.000
  -3892467.637 9  -3016676.06746  24121141.585    24121141.4124   24121150.4234
        -0.000          -0.000
  -3727564.133 9  -2898000.56445  24284263.000    24284262.8544   24284269.5464
        -0.000          -0.000
 -25357550.012 9 -19745507.57248  20947642.250    20947641.8494   20947647.8054
        -0.000          -0.000
 -15542865.055 9 -12103730.42647  22284102.529    22284102.2074   22284108.3384
        -0.000          -0.000
 -10287124.520 9  -8006115.11447  22721078.481    22721078.1554   22721084.5524
        -0.000          -0.000
 -21172898.327 9 -16477504.86848  21066511.830    21066511.8974   21066517.4574
        -0.000          -0.000
 98  6 25  0 56 30.0000000  0 10  3  1 23 17 25  9 21  8 31 29       0.000000056
 -13907551.277 9 -10824534.70847  22478095.586    22478095.2484   22478102.2814
        -0.000          -0.000
 -25039507.548 9 -19494577.98449  20259088.970    20259088.5954   20259094.3674
        -0.000          -0.000
   -731070.302 9   -551394.67947  22735306.104    22735305.5964   22735311.9524
        -0.000          -0.000
  15623571.912 8  12027137.91845  24547155.045    24547154.4584   24547163.8504
        -0.000          -0.000
  -3990898.076 9  -3093374.98346  24102410.783    24102410.6694   24102419.5904
        -0.000          -0.000
  -3665708.829 9  -2849801.69545  24296033.536    24296033.4264   24296040.4434
        -0.000          -0.000
 -25349226.753 9 -19739021.90548  20949226.143    20949225.7234   20949231.6614
        -0.000          -0.000
 -15551173.295 9 -12110204.36547  22282521.587    22282521.2214   22282527.2364
        -0.000          -0.000
 -10275166.128 9  -7996796.91447  22723354.226    22723353.8504   22723360.2554
        -0.000          -0.000
 -21225749.084 9 -16518687.23948  21056454.646    21056454.7004   21056460.2394
        -0.000          -0.000
 98  6 25  0 57  0.0000000  0 10  3  1 23 17 25  9 21  8 31 29       0.000000049
 -13837452.777 9 -10769912.56147  22491434.891    22491434.6144   22491441.6724
        -0.000          -0.000
 -25035954.955 9 -19491809.72549  20259764.965    20259764.6074   20259770.3524
        -0.000          -0.000
   -680886.439 9   -512290.39347  22744855.843    22744855.4044   22744861.6254
        -0.000          -0.000
  15729038.105 8  12109319.21945  24567224.706    24567224.1644   24567233.6844
        -0.000          -0.000
  -4089319.747 8  -3170066.98146  24083681.648    24083681.4064   24083690.6104
        -0.000          -0.000
  -3603413.663 9  -2801259.96745  24307888.120    24307887.8594   24307894.5404
        -0.000          -0.000
 -25340743.054 9 -19732411.23248  20950840.540    20950840.1254   20950846.0664
        -0.000          -0.000
 -15558906.455 9 -12116230.19247  22281050.091    22281049.6904   22281055.6114
        -0.000          -0.000
 -10262639.334 9  -7987035.81047  22725737.987    22725737.6494   22725744.0614
        -0.000          -0.000
 -21278194.609 9 -16559553.85248  21046474.579    21046474.6194   21046480.1664
        -0.000          -0.000
 98  6 25  0 57 30.0000000  0  9  3  1 23 25  9 21  8 31 29          0.000000039
 -13767072.100 9 -10715070.53547  22504827.900    22504827.6124   22504834.7684
        -0.000          -0.000
 -25031955.996 9 -19488693.64849  20260525.958    20260525.5904   20260531.3394
        -0.000          -0.000
   -630646.491 9   -473142.39647  22754416.263    22754415.7764   22754421.9664
        -0.000          -0.000
  -4187736.614 9  -3246755.26346  24064953.390    24064953.1304   24064962.3364
        -0.000          -0.000
  -3540707.942 9  -2752398.38045  24319820.681    24319820.3894   24319827.1954
        -0.000          -0.000
 -25332128.593 9 -19725698.66348  20952479.834    20952479.4304   20952485.3544
        -0.000          -0.000
 -15566105.572 9 -12121839.87447  22279680.157    22279679.7094   22279685.6624
        -0.000          -0.000
 -10249575.276 9  -7976856.05447  22728224.084    22728223.6584   22728230.0764
        -0.000          -0.000
 -21330264.743 9 -16600127.94448  21036565.937    21036565.9884   21036571.5394
        -0.000          -0.000
 98  6 25  0 58  0.0000000  0  9  3  1 23 25  9 21  8 31 29          0.000000021
 -13696381.748 9 -10659987.19747  22518279.905    22518279.6494   22518286.7754
        -0.000          -0.000
 -25027479.295 9 -19485205.30149  20261377.794    20261377.4404   20261383.1994
        -0.000          -0.000
   -580326.532 9   -433932.05547  22763991.881    22763991.3674   22763997.6304
        -0.000          -0.000
  -4286111.259 9  -3323410.64946  24046233.214    24046233.0894   24046242.2014
        -0.000          -0.000
  -3477552.733 9  -2703186.58646  24331838.714    24331838.4884   24331845.4614
        -0.000          -0.000
 -25323347.824 9 -19718856.50548  20954150.743    20954150.3244   20954156.2504
        -0.000          -0.000
 -15572741.868 9 -12127011.00047  22278417.190    22278416.8334   22278422.8124
        -0.000          -0.000
 -10235936.592 9  -7966228.53847  22730819.456    22730819.0314   22730825.4604
        -0.000          -0.000
 -21381920.652 9 -16640379.26548  21026736.103    21026736.1634   21026741.7374
        -0.000          -0.000
 98  6 25  0 58 30.0000000  0  9  3  1 23 25  9 21  8 31 29          0.000000012
 -13625373.850 9 -10604656.41247  22531792.246    22531792.0054   22531799.1714
        -0.000          -0.000
 -25022504.609 9 -19481328.91249  20262324.464    20262324.0954   20262329.8494
        -0.000          -0.000
   -529937.583 9   -394667.94747  22773580.526    22773580.0994   22773586.3964
        -0.000          -0.000
  -4384441.534 9  -3400031.53146  24027521.548    24027521.4134   24027530.2194
        -0.000          -0.000
  -3413931.117 8  -2653611.37446  24343945.602    24343945.2384   24343952.5054
        -0.000          -0.000
 -25314402.255 9 -19711885.92948  20955853.067    20955852.6254   20955858.5224
        -0.000          -0.000
 -15578799.781 9 -12131731.42047  22277264.405    22277264.0414   22277270.0624
        -0.000          -0.000
 -10221740.031 9  -7955166.29947  22733521.054    22733520.5314   22733527.0204
        -0.000          -0.000
 -21433151.999 9 -16680299.75848  21016987.089    21016987.1234   21016992.6664
        -0.000          -0.000
 98  6 25  0 59  0.0000000  0  9  3  1 23 25  9 21  8 31 29          0.000000012
 -13554036.428 9 -10549068.86447  22545367.305    22545367.0774   22545374.2054
        -0.000          -0.000
 -25017033.439 9 -19477065.65349  20263365.568    20263365.2044   20263370.9774
        -0.000          -0.000
   -479468.237 9   -355341.18947  22783184.554    22783184.0804   22783190.3804
        -0.000          -0.000
  -4482716.671 9  -3476609.38346  24008820.246    24008820.0604   24008828.9324
        -0.000          -0.000
  -3349837.306 9  -2603668.16245  24356142.207    24356141.9244   24356149.2774
        -0.000          -0.000
 -25305274.863 9 -19704773.67348  20957589.949    20957589.5234   20957595.4124
        -0.000          -0.000
 -15584253.737 9 -12135981.23847  22276226.552    22276226.1904   22276232.1514
        -0.000          -0.000
 -10207004.651 9  -7943684.20847  22736325.022    22736324.5704   22736331.0384
        -0.000          -0.000
 -21483960.847 9 -16719891.02948  21007318.436    21007318.4964   21007324.0044
        -0.000          -0.000
 98  6 25  0 59 30.0000000  0  9  3  1 23 25  9 21  8 31 29          0.000000009
 -13482378.090 9 -10493231.26347  22559003.506    22559003.2074   22559010.4234
        -0.000          -0.000
 -25011078.751 9 -19472425.63749  20264498.703    20264498.3404   20264504.0944
        -0.000          -0.000
   -428927.282 9   -315958.65047  22792802.136    22792801.6924   22792808.0104
        -0.000          -0.000
  -4580957.782 9  -3553160.74046  23990125.370    23990125.2924   23990134.2124
        -0.000          -0.000
  -3285291.654 8  -2553372.86545  24368424.865    24368424.6514   24368432.0154
        -0.000          -0.000
 -25295974.084 9 -19697526.31748  20959359.858    20959359.4184   20959365.3074
        -0.000          -0.000
 -15589109.836 9 -12139765.19847  22275302.433    22275302.0504   22275308.0454
        -0.000          -0.000
 -10191754.081 9  -7931800.67447  22739227.114    22739226.7014   22739233.1604
        -0.000          -0.000
 -21534367.699 9 -16759169.06148  20997726.304    20997726.3474   20997731.8554
        -0.000          -0.000
 98  6 25  1  0  0.0000000  0  9  3  1 23 25  9 21  8 31 29          0.000000007
 -13410385.531 9 -10437133.22947  22572703.185    22572702.9834   22572710.1934
        -0.000          -0.000
 -25004627.733 9 -19467398.85949  20265726.287    20265725.9104   20265731.6754
        -0.000          -0.000
   -378294.655 9   -276504.67047  22802437.255    22802436.7524   22802443.1004
        -0.000          -0.000
  -4679171.076 9  -3629690.38546  23971435.619    23971435.5704   23971444.8044
        -0.000          -0.000
  -3220281.405 9  -2502715.54745  24380795.754    24380795.5064   24380802.6024
        -0.000          -0.000
 -25286486.867 9 -19690133.68348  20961165.225    20961164.7784   20961170.6874
        -0.000          -0.000
 -15593343.659 9 -12143064.26047  22274496.747    22274496.3574   22274502.4154
        -0.000          -0.000
 -10175970.614 9  -7919501.89747  22742230.726    22742230.3314   22742236.7124
        -0.000          -0.000
 -21584348.431 9 -16798115.04748  20988215.234    20988215.2814   20988220.7964
        -0.000          -0.000
 98  6 25  1  0 30.0000000  0  9  3  1 23 25  9 21  8 31 29          0.000000010
 -13338062.844 9 -10380777.94547  22586465.783    22586465.5554   22586472.7874
        -0.000          -0.000
 -24997690.530 9 -19461993.24049  20267046.366    20267046.0064   20267051.7574
        -0.000          -0.000
   -327556.158 9   -236968.19247  22812092.412    22812091.9674   22812098.2924
        -0.000          -0.000
  -4777357.394 9  -3706199.07346  23952751.290    23952751.4154   23952760.3694
        -0.000          -0.000
  -3154804.067 9  -2451694.25845  24393255.866    24393255.6904   24393262.4964
        -0.000          -0.000
 -25276815.084 9 -19682597.22948  20963005.670    20963005.2244   20963011.1444
        -0.000          -0.000
 -15596949.854 9 -12145874.26047  22273810.376    22273810.0624   22273816.2074
        -0.000          -0.000
 -10159668.741 9  -7906799.16247  22745332.838    22745332.4744   22745338.9264
        -0.000          -0.000
 -21633905.062 9 -16836730.56248  20978784.908    20978784.9504   20978790.4544
        -0.000          -0.000
